OK1OBR-13 Weather Reports


time (UTC)temp
C
wind
direction
speed
KPH
gust
KPH
rain 1hr
cm
rain 24hr
cm
rain mn
cm
humidity
%
barometer
mb
20260507185902 11 309 3.2 4.8 0.00 0.00 0.00 79 935.7
20260507185801 11 325 3.2 4.8 0.00 0.00 0.00 79 935.6
20260507185700 11 327 3.2 4.8 0.00 0.00 0.00 78 935.5
20260507185601 11 302 3.2 4.8 0.00 0.00 0.00 78 935.4
20260507185502 11 320 4.8 4.8 0.00 0.00 0.00 78 935.7
20260507185401 11 311 1.6 4.8 0.00 0.00 0.00 78 935.6
20260507185301 11 310 3.2 4.8 0.00 0.00 0.00 78 935.5
20260507185201 11 327 3.2 4.8 0.00 0.00 0.00 78 935.5
20260507185101 11 326 1.6 4.8 0.00 0.00 0.00 78 935.6
20260507185006 11 309 1.6 4.8 0.00 0.00 0.00 78 935.5
20260507184800 11 304 3.2 4.8 0.00 0.00 0.00 78 935.5
20260507184602 11 328 3.2 4.8 0.00 0.00 0.00 77 935.6
20260507184504 11 320 3.2 4.8 0.00 0.00 0.00 77 935.6
20260507184402 11 333 3.2 4.8 0.00 0.00 0.00 77 935.6
20260507184301 11 316 3.2 4.8 0.00 0.00 0.00 77 935.5
20260507184201 11 319 3.2 4.8 0.00 0.00 0.00 77 935.7
20260507184102 11 302 1.6 4.8 0.00 0.00 0.00 77 935.7
20260507184001 11 316 3.2 3.2 0.00 0.00 0.00 77 935.3
20260507183901 11 304 1.6 4.8 0.00 0.00 0.00 77 935.5
20260507183801 11 330 4.8 4.8 0.00 0.00 0.00 77 935.4
20260507183701 11 323 4.8 4.8 0.00 0.00 0.00 76 935.5
20260507183602 11 304 1.6 4.8 0.00 0.00 0.00 76 935.3
20260507183502 11 309 3.2 4.8 0.00 0.00 0.00 76 935.6
20260507183401 11 310 3.2 4.8 0.00 0.00 0.00 76 935.4
20260507183301 11 328 3.2 4.8 0.00 0.00 0.00 76 935.4
20260507183201 11 309 3.2 4.8 0.00 0.00 0.00 76 935.4
20260507183101 11 322 4.8 4.8 0.00 0.00 0.00 76 935.4
20260507183001 11 332 3.2 4.8 0.00 0.00 0.00 76 935.1
20260507182901 11 332 3.2 3.2 0.00 0.00 0.00 76 935.1
20260507182801 11 310 1.6 4.8 0.00 0.00 0.00 75 935.3
20260507182701 11 329 3.2 4.8 0.00 0.00 0.00 75 935.2
20260507182601 11 306 3.2 4.8 0.00 0.00 0.00 75 935.1
20260507182501 11 326 4.8 4.8 0.00 0.00 0.00 75 935.3
20260507182402 11 321 4.8 4.8 0.00 0.00 0.00 75 935.2
20260507182300 11 331 3.2 4.8 0.00 0.00 0.00 75 935.3
20260507182201 11 336 3.2 6.4 0.00 0.00 0.00 75 935.0
20260507182101 11 331 3.2 6.4 0.00 0.00 0.00 74 935.2
20260507182001 11 306 4.8 6.4 0.00 0.00 0.00 74 935.1
20260507181900 11 325 4.8 6.4 0.00 0.00 0.00 74 935.1
20260507181801 11 325 4.8 6.4 0.00 0.00 0.00 74 935.1
20260507181701 11 306 3.2 6.4 0.00 0.00 0.00 74 935.0
20260507181601 11 333 4.8 6.4 0.00 0.00 0.00 74 935.0
20260507181501 11 316 6.4 6.4 0.00 0.00 0.00 74 935.1
20260507181401 11 316 4.8 6.4 0.00 0.00 0.00 74 935.2
20260507181301 11 322 4.8 6.4 0.00 0.00 0.00 73 935.1
20260507181202 11 333 4.8 6.4 0.00 0.00 0.00 73 935.0
20260507181101 12 329 3.2 4.8 0.00 0.00 0.00 73 935.0
20260507181001 12 311 3.2 6.4 0.00 0.00 0.00 72 935.2
20260507180901 12 353 3.2 6.4 0.00 0.00 0.00 72 934.9
20260507180801 12 318 6.4 6.4 0.00 0.00 0.00 71 935.0
20260507180702 12 312 3.2 6.4 0.00 0.00 0.00 70 934.9
20260507180501 12 304 3.2 4.8 0.00 0.00 0.00 69 935.0
20260507180401 12 306 3.2 4.8 0.00 0.00 0.00 68 934.9
20260507180301 12 317 4.8 8.0 0.00 0.00 0.00 67 934.9
20260507180201 12 312 6.4 8.0 0.00 0.00 0.00 67 934.9
20260507180101 12 328 1.6 4.8 0.00 0.00 0.00 65 934.8
20260507180001 12 304 1.6 3.2 0.00 0.00 0.00 65 934.8
20260507175901 12 306 1.6 1.6 0.00 0.00 0.00 65 935.1
20260507175800 12 307 1.6 1.6 0.00 0.00 0.00 64 934.9
20260507175701 12 327 1.6 1.6 0.00 0.00 0.00 64 934.8
20260507175605 12 301 1.6 1.6 0.00 0.00 0.00 64 934.9
20260507175501 12 278 0.0 1.6 0.00 0.00 0.00 64 934.8
20260507175401 12 307 1.6 3.2 0.00 0.00 0.00 64 934.8
20260507175306 12 308 1.6 3.2 0.00 0.00 0.00 64 934.8
20260507175202 12 312 1.6 3.2 0.00 0.00 0.00 64 934.9
20260507175101 12 308 3.2 3.2 0.00 0.00 0.00 64 934.9
20260507175001 12 296 1.6 3.2 0.00 0.00 0.00 64 934.6
20260507174902 12 311 3.2 3.2 0.00 0.00 0.00 64 934.7
20260507174803 12 302 1.6 3.2 0.00 0.00 0.00 63 934.7
20260507174701 13 294 1.6 3.2 0.00 0.00 0.00 63 934.9
20260507174601 13 298 1.6 3.2 0.00 0.00 0.00 63 934.7
20260507174501 13 311 1.6 3.2 0.00 0.00 0.00 62 934.8
20260507174402 13 305 1.6 3.2 0.00 0.00 0.00 62 934.6
20260507174301 13 312 1.6 4.8 0.00 0.00 0.00 61 934.8
20260507174200 13 314 3.2 4.8 0.00 0.00 0.00 61 934.8
20260507174101 13 311 1.6 3.2 0.00 0.00 0.00 60 934.7
20260507174001 13 296 1.6 3.2 0.00 0.00 0.00 60 934.6
20260507173901 13 304 1.6 3.2 0.00 0.00 0.00 60 934.6
20260507173802 13 300 3.2 3.2 0.00 0.00 0.00 60 934.7
20260507173701 13 284 1.6 1.6 0.00 0.00 0.00 60 934.8
20260507173601 13 300 1.6 1.6 0.00 0.00 0.00 60 934.7
20260507173500 13 291 1.6 1.6 0.00 0.00 0.00 61 934.8
20260507173401 13 296 1.6 3.2 0.00 0.00 0.00 61 934.7
20260507173302 13 291 1.6 3.2 0.00 0.00 0.00 61 934.6
20260507173202 13 300 1.6 3.2 0.00 0.00 0.00 61 934.7
20260507173001 13 268 1.6 3.2 0.00 0.00 0.00 60 934.7
20260507172901 13 299 1.6 4.8 0.00 0.00 0.00 59 934.5
20260507172801 13 266 1.6 4.8 0.00 0.00 0.00 59 934.7
20260507172701 13 279 1.6 1.6 0.00 0.00 0.00 59 934.8
20260507172601 13 289 1.6 1.6 0.00 0.00 0.00 59 934.6
20260507172501 13 293 1.6 1.6 0.00 0.00 0.00 59 934.7
20260507172401 13 284 1.6 1.6 0.00 0.00 0.00 58 934.6
20260507172307 13 300 1.6 3.2 0.00 0.00 0.00 59 934.6
20260507172201 13 283 1.6 3.2 0.00 0.00 0.00 58 934.6
20260507172100 13 283 1.6 3.2 0.00 0.00 0.00 58 934.7
20260507172001 13 302 1.6 3.2 0.00 0.00 0.00 58 934.6
20260507171901 13 295 1.6 3.2 0.00 0.00 0.00 58 934.7
20260507171801 13 295 1.6 3.2 0.00 0.00 0.00 58 934.7
20260507171701 13 310 1.6 3.2 0.00 0.00 0.00 58 934.6
20260507171601 13 310 1.6 3.2 0.00 0.00 0.00 58 934.6
20260507171502 13 308 1.6 1.6 0.00 0.00 0.00 58 934.5
20260507171401 13 247 0.0 1.6 0.00 0.00 0.00 58 934.5
20260507171301 13 281 1.6 1.6 0.00 0.00 0.00 58 934.4
20260507171201 13 302 1.6 1.6 0.00 0.00 0.00 58 934.4
20260507171101 14 303 1.6 1.6 0.00 0.00 0.00 58 934.4
20260507170900 14 293 1.6 1.6 0.00 0.00 0.00 57 934.5
20260507170802 14 295 0.0 1.6 0.00 0.00 0.00 57 934.2
20260507170701 14 286 1.6 1.6 0.00 0.00 0.00 57 934.6
20260507170601 14 310 1.6 3.2 0.00 0.00 0.00 58 934.4
20260507170502 14 300 1.6 3.2 0.00 0.00 0.00 57 934.4
20260507170402 14 310 1.6 1.6 0.00 0.00 0.00 57 934.3
20260507170301 14 279 1.6 1.6 0.00 0.00 0.00 57 934.2
20260507170202 14 299 1.6 1.6 0.00 0.00 0.00 57 934.4
20260507170101 14 284 1.6 3.2 0.00 0.00 0.00 56 934.4
20260507170002 14 293 1.6 3.2 0.00 0.00 0.00 55 934.4
20260507165901 14 310 1.6 3.2 0.00 0.00 0.00 55 934.3
20260507165802 14 289 1.6 1.6 0.00 0.00 0.00 55 934.6
20260507165700 14 264 1.6 1.6 0.00 0.00 0.00 54 934.3
20260507165602 14 286 1.6 1.6 0.00 0.00 0.00 53 934.6
20260507165501 14 274 1.6 3.2 0.00 0.00 0.00 53 934.2
20260507165402 14 272 1.6 1.6 0.00 0.00 0.00 53 934.1
20260507165301 15 247 1.6 1.6 0.00 0.00 0.00 54 934.4
20260507165201 15 278 1.6 3.2 0.00 0.00 0.00 53 934.4
20260507165101 15 282 3.2 3.2 0.00 0.00 0.00 53 934.4
20260507164902 15 297 1.6 3.2 0.00 0.00 0.00 52 934.3
20260507164801 15 286 1.6 1.6 0.00 0.00 0.00 54 934.2
20260507164701 15 244 0.0 1.6 0.00 0.00 0.00 55 934.2
20260507164600 15 253 1.6 3.2 0.00 0.00 0.00 54 934.4
20260507164503 15 296 3.2 3.2 0.00 0.00 0.00 54 934.3
20260507164403 14 292 1.6 3.2 0.00 0.00 0.00 53 934.3
20260507164301 14 292 1.6 1.6 0.00 0.00 0.00 53 934.2
20260507164201 14 298 1.6 1.6 0.00 0.00 0.00 53 934.5
20260507164101 14 268 1.6 1.6 0.00 0.00 0.00 54 934.3
20260507164001 14 273 1.6 3.2 0.00 0.00 0.00 53 934.3
20260507163902 15 281 1.6 1.6 0.00 0.00 0.00 52 934.4
20260507163701 15 279 1.6 1.6 0.00 0.00 0.00 52 934.3
20260507163603 15 280 1.6 3.2 0.00 0.00 0.00 52 934.3
20260507163501 15 281 1.6 3.2 0.00 0.00 0.00 49 934.3
20260507163401 15 279 1.6 3.2 0.00 0.00 0.00 49 934.4
20260507163301 15 298 1.6 3.2 0.00 0.00 0.00 51 934.1
20260507163205 15 280 0.0 1.6 0.00 0.00 0.00 52 934.2
20260507163101 15 281 1.6 3.2 0.00 0.00 0.00 51 934.2
20260507163002 14 222 1.6 3.2 0.00 0.00 0.00 53 934.1
20260507162901 14 267 0.0 1.6 0.00 0.00 0.00 51 934.1
20260507162801 14 303 1.6 1.6 0.00 0.00 0.00 53 934.3
20260507162700 14 275 1.6 3.2 0.00 0.00 0.00 53 934.2
20260507162601 14 293 1.6 3.2 0.00 0.00 0.00 51 934.1
20260507162501 14 281 1.6 3.2 0.00 0.00 0.00 51 934.0
20260507162401 14 249 3.2 3.2 0.00 0.00 0.00 52 934.0
20260507162302 14 282 0.0 1.6 0.00 0.00 0.00 53 934.2
20260507162201 14 281 1.6 3.2 0.00 0.00 0.00 52 934.0
20260507162102 14 239 1.6 3.2 0.00 0.00 0.00 52 934.3
20260507162001 14 263 1.6 1.6 0.00 0.00 0.00 53 934.1
20260507161902 14 252 0.0 3.2 0.00 0.00 0.00 54 934.2
20260507161802 14 252 0.0 3.2 0.00 0.00 0.00 54 934.2
20260507161703 14 277 1.6 3.2 0.00 0.00 0.00 53 934.1
20260507161601 14 234 1.6 3.2 0.00 0.00 0.00 53 934.3
20260507161401 14 228 1.6 1.6 0.00 0.00 0.00 53 934.0
20260507161302 14 244 1.6 1.6 0.00 0.00 0.00 53 934.2
20260507161201 14 285 1.6 1.6 0.00 0.00 0.00 53 934.3
20260507161101 14 273 1.6 1.6 0.00 0.00 0.00 54 934.2
20260507161001 14 285 1.6 1.6 0.00 0.00 0.00 53 934.1
20260507160902 14 290 1.6 1.6 0.00 0.00 0.00 54 934.2
20260507160801 14 279 1.6 3.2 0.00 0.00 0.00 54 934.3
20260507160702 14 288 3.2 3.2 0.00 0.00 0.00 53 934.1
20260507160601 14 277 1.6 1.6 0.00 0.00 0.00 53 934.1
20260507160501 14 281 1.6 1.6 0.00 0.00 0.00 54 934.3
20260507160401 14 281 1.6 1.6 0.00 0.00 0.00 54 934.3
20260507160302 14 282 1.6 1.6 0.00 0.00 0.00 54 934.1
20260507160218 14 278 0.0 1.6 0.00 0.00 0.00 54 934.4
20260507160001 14 277 1.6 1.6 0.00 0.00 0.00 53 934.2
20260507155901 15 269 1.6 3.2 0.00 0.00 0.00 54 934.1
20260507155801 15 273 1.6 3.2 0.00 0.00 0.00 54 934.2
20260507155701 15 225 1.6 3.2 0.00 0.00 0.00 54 934.1
20260507155601 15 305 1.6 1.6 0.00 0.00 0.00 56 934.3
20260507155501 14 292 1.6 1.6 0.00 0.00 0.00 55 934.1
20260507155402 14 276 0.0 1.6 0.00 0.00 0.00 57 934.2
20260507155301 14 284 1.6 1.6 0.00 0.00 0.00 55 934.0
20260507155201 14 284 1.6 1.6 0.00 0.00 0.00 56 934.3
20260507155101 14 281 1.6 3.2 0.00 0.00 0.00 56 934.3
20260507155001 15 282 1.6 3.2 0.00 0.00 0.00 55 934.1
20260507154900 15 285 1.6 3.2 0.00 0.00 0.00 55 934.2
20260507154801 15 285 1.6 3.2 0.00 0.00 0.00 54 934.1
20260507154701 15 296 3.2 3.2 0.00 0.00 0.00 54 934.2
20260507154601 15 275 1.6 3.2 0.00 0.00 0.00 55 933.9
20260507154501 15 296 1.6 3.2 0.00 0.00 0.00 55 934.0
20260507154401 15 295 1.6 3.2 0.00 0.00 0.00 55 934.2
20260507154301 15 300 3.2 3.2 0.00 0.00 0.00 54 934.2
20260507154201 15 282 3.2 3.2 0.00 0.00 0.00 54 934.1
20260507154101 15 281 3.2 4.8 0.00 0.00 0.00 54 934.4
20260507154001 15 284 3.2 4.8 0.00 0.00 0.00 54 934.3
20260507153902 15 296 1.6 1.6 0.00 0.00 0.00 55 934.0
20260507153801 15 286 1.6 3.2 0.00 0.00 0.00 55 934.2
20260507153702 15 259 1.6 3.2 0.00 0.00 0.00 54 934.0
20260507153602 15 264 1.6 4.8 0.00 0.00 0.00 54 934.1
20260507153501 15 210 3.2 4.8 0.00 0.00 0.00 55 934.0
20260507153401 15 288 1.6 3.2 0.00 0.00 0.00 55 934.1
20260507153303 15 263 1.6 3.2 0.00 0.00 0.00 55 934.0
20260507153202 15 262 1.6 1.6 0.00 0.00 0.00 56 934.0
20260507153101 15 283 1.6 1.6 0.00 0.00 0.00 56 934.1
20260507153002 15 241 1.6 3.2 0.00 0.00 0.00 56 934.2
20260507152901 15 294 1.6 3.2 0.00 0.00 0.00 57 934.0
20260507152801 15 311 3.2 3.2 0.00 0.00 0.00 57 934.0
20260507152701 15 301 1.6 1.6 0.00 0.00 0.00 58 934.1
20260507152601 15 288 1.6 3.2 0.00 0.00 0.00 58 934.1
20260507152501 15 314 1.6 3.2 0.00 0.00 0.00 57 934.1
20260507152401 15 303 3.2 3.2 0.00 0.00 0.00 58 934.3
20260507152301 15 293 1.6 3.2 0.00 0.00 0.00 57 934.0
20260507152201 15 288 3.2 3.2 0.00 0.00 0.00 59 934.1
20260507152101 15 305 1.6 1.6 0.00 0.00 0.00 59 934.2
20260507152002 15 308 1.6 3.2 0.00 0.00 0.00 59 934.1
20260507151901 14 305 1.6 3.2 0.00 0.00 0.00 58 934.1
20260507151800 14 303 1.6 3.2 0.00 0.00 0.00 58 934.1
20260507151701 14 312 3.2 3.2 0.00 0.00 0.00 59 934.2
20260507151601 14 312 3.2 3.2 0.00 0.00 0.00 59 934.2
20260507151501 14 302 1.6 1.6 0.00 0.00 0.00 59 934.1
20260507151402 14 265 0.0 1.6 0.00 0.00 0.00 60 934.0
20260507151301 14 290 1.6 3.2 0.00 0.00 0.00 60 934.1
20260507151201 15 327 3.2 3.2 0.00 0.00 0.00 58 934.0
20260507151101 15 295 1.6 4.8 0.00 0.00 0.00 57 934.2
20260507151001 15 316 3.2 4.8 0.00 0.00 0.00 56 934.4
20260507150901 15 300 3.2 4.8 0.00 0.00 0.00 56 934.0
20260507150801 15 280 1.6 1.6 0.00 0.00 0.00 58 934.1
20260507150701 15 282 1.6 1.6 0.00 0.00 0.00 58 934.1
20260507150601 15 274 1.6 1.6 0.00 0.00 0.00 57 934.1
20260507150501 15 251 1.6 3.2 0.00 0.00 0.00 55 934.1
20260507150403 15 242 1.6 3.2 0.00 0.00 0.00 55 934.1
20260507150301 15 252 1.6 4.8 0.00 0.00 0.00 56 934.1
20260507150202 15 235 3.2 3.2 0.00 0.00 0.00 55 934.0
20260507150100 15 238 1.6 3.2 0.00 0.00 0.00 55 933.9
20260507150001 15 247 1.6 1.6 0.00 0.00 0.00 56 934.2
20260507145902 15 282 1.6 3.2 0.00 0.00 0.00 56 934.0
20260507145801 15 262 1.6 3.2 0.00 0.00 0.00 58 934.2
20260507145701 15 313 1.6 1.6 0.00 0.00 0.00 57 934.2
20260507145601 15 284 1.6 1.6 0.00 0.00 0.00 57 933.9
20260507145502 14 309 1.6 1.6 0.00 0.00 0.00 58 933.9
20260507145401 14 281 1.6 3.2 0.00 0.00 0.00 58 933.8
20260507145302 15 299 1.6 3.2 0.00 0.00 0.00 58 934.2
20260507145200 15 279 3.2 4.8 0.00 0.00 0.00 57 934.0
20260507145101 15 221 3.2 3.2 0.00 0.00 0.00 58 934.0
20260507145001 14 225 1.6 3.2 0.00 0.00 0.00 58 934.2
20260507144901 14 226 1.6 3.2 0.00 0.00 0.00 59 934.2
20260507144801 14 274 1.6 3.2 0.00 0.00 0.00 60 934.1
20260507144701 14 272 1.6 3.2 0.00 0.00 0.00 60 934.0
20260507144601 14 277 1.6 3.2 0.00 0.00 0.00 60 934.1
20260507144501 15 304 1.6 3.2 0.00 0.00 0.00 59 934.0
20260507144401 15 277 1.6 3.2 0.00 0.00 0.00 58 934.2
20260507144303 15 248 1.6 1.6 0.00 0.00 0.00 61 934.0
20260507144202 15 288 1.6 1.6 0.00 0.00 0.00 59 934.0
20260507144101 15 302 1.6 1.6 0.00 0.00 0.00 58 934.1
20260507144000 15 234 0.0 3.2 0.00 0.00 0.00 57 934.0
20260507143901 15 295 1.6 1.6 0.00 0.00 0.00 57 933.9
20260507143801 15 281 1.6 1.6 0.00 0.00 0.00 58 934.0
20260507143702 15 277 1.6 1.6 0.00 0.00 0.00 59 934.1
20260507143601 15 288 1.6 1.6 0.00 0.00 0.00 58 934.0
20260507143502 15 283 1.6 1.6 0.00 0.00 0.00 61 934.3
20260507143401 15 223 1.6 3.2 0.00 0.00 0.00 59 934.0
20260507143301 15 301 1.6 3.2 0.00 0.00 0.00 58 934.1
20260507143201 15 289 1.6 4.8 0.00 0.00 0.00 58 934.1
20260507143101 15 277 3.2 4.8 0.00 0.00 0.00 58 934.0
20260507143001 15 296 3.2 4.8 0.00 0.00 0.00 59 934.1
20260507142901 15 285 1.6 3.2 0.00 0.00 0.00 59 934.1
20260507142806 15 253 1.6 3.2 0.00 0.00 0.00 58 934.0
20260507142701 15 259 1.6 3.2 0.00 0.00 0.00 58 934.2
20260507142601 15 253 1.6 3.2 0.00 0.00 0.00 59 934.1
20260507142501 15 243 3.2 4.8 0.00 0.00 0.00 56 934.2
20260507142401 15 292 1.6 4.8 0.00 0.00 0.00 58 934.1
20260507142300 16 247 1.6 3.2 0.00 0.00 0.00 56 934.1
20260507142201 16 254 1.6 4.8 0.00 0.00 0.00 55 934.0
20260507142102 16 249 3.2 4.8 0.00 0.00 0.00 57 934.0
20260507142000 16 233 3.2 4.8 0.00 0.00 0.00 56 934.1
20260507141901 16 243 1.6 1.6 0.00 0.00 0.00 58 934.1
20260507141802 16 222 0.0 4.8 0.00 0.00 0.00 56 934.1
20260507141701 16 282 1.6 4.8 0.00 0.00 0.00 56 934.0
20260507141601 16 282 1.6 4.8 0.00 0.00 0.00 56 934.0
20260507141501 16 228 1.6 3.2 0.00 0.00 0.00 58 934.3
20260507141402 16 287 1.6 3.2 0.00 0.00 0.00 57 934.1
20260507141304 16 236 1.6 4.8 0.00 0.00 0.00 56 934.2
20260507141201 16 235 1.6 3.2 0.00 0.00 0.00 55 934.3
20260507141105 16 267 1.6 3.2 0.00 0.00 0.00 56 934.2
20260507141002 16 228 1.6 3.2 0.00 0.00 0.00 55 934.3
20260507140901 16 258 1.6 3.2 0.00 0.00 0.00 57 934.2
20260507140801 16 256 1.6 4.8 0.00 0.00 0.00 55 934.2
20260507140701 16 232 3.2 4.8 0.00 0.00 0.00 55 934.1
20260507140601 15 218 1.6 3.2 0.00 0.00 0.00 60 934.1
20260507140502 15 293 1.6 3.2 0.00 0.00 0.00 59 934.1
20260507140401 16 308 1.6 6.4 0.00 0.00 0.00 57 934.1
20260507140301 16 304 4.8 6.4 0.00 0.00 0.00 57 934.1
20260507140201 16 299 3.2 3.2 0.00 0.00 0.00 57 933.9
20260507140101 16 279 1.6 4.8 0.00 0.00 0.00 56 934.0
20260507140002 16 283 3.2 3.2 0.00 0.00 0.00 56 933.9
20260507135902 16 291 1.6 4.8 0.00 0.00 0.00 54 933.9
20260507135800 16 282 1.6 4.8 0.00 0.00 0.00 54 934.3
20260507135700 16 311 1.6 3.2 0.00 0.00 0.00 55 934.1
20260507135603 16 242 1.6 3.2 0.00 0.00 0.00 55 934.1
20260507135501 16 285 3.2 3.2 0.00 0.00 0.00 56 934.0
20260507135401 16 289 1.6 3.2 0.00 0.00 0.00 58 933.9
20260507135301 16 282 1.6 3.2 0.00 0.00 0.00 56 934.0
20260507135200 16 274 1.6 3.2 0.00 0.00 0.00 56 934.1
20260507135102 16 229 1.6 3.2 0.00 0.00 0.00 55 934.1
20260507135001 16 242 1.6 3.2 0.00 0.00 0.00 55 934.0
20260507134902 16 275 1.6 3.2 0.00 0.00 0.00 55 934.1
20260507134805 16 280 1.6 3.2 0.00 0.00 0.00 56 934.2
20260507134701 15 281 1.6 1.6 0.00 0.00 0.00 58 934.0
20260507134600 15 284 1.6 1.6 0.00 0.00 0.00 57 934.0
20260507134501 15 287 1.6 1.6 0.00 0.00 0.00 58 934.2
20260507134401 15 278 1.6 1.6 0.00 0.00 0.00 57 934.0
20260507134301 15 245 1.6 3.2 0.00 0.00 0.00 56 934.0
20260507134202 15 229 3.2 3.2 0.00 0.00 0.00 56 933.9
20260507134101 16 239 1.6 4.8 0.00 0.00 0.00 55 933.9
20260507134000 16 255 1.6 4.8 0.00 0.00 0.00 54 933.9
20260507133901 16 240 1.6 3.2 0.00 0.00 0.00 53 934.0
20260507133802 16 234 1.6 3.2 0.00 0.00 0.00 54 934.2
20260507133702 16 259 1.6 3.2 0.00 0.00 0.00 54 934.0
20260507133603 16 231 1.6 4.8 0.00 0.00 0.00 58 934.0
20260507133500 16 224 3.2 4.8 0.00 0.00 0.00 55 934.2
20260507133401 16 281 1.6 3.2 0.00 0.00 0.00 54 934.0
20260507133302 16 239 1.6 3.2 0.00 0.00 0.00 53 934.1
20260507133201 16 264 1.6 3.2 0.00 0.00 0.00 54 934.1
20260507133101 16 243 1.6 4.8 0.00 0.00 0.00 55 934.0
20260507133002 16 273 3.2 3.2 0.00 0.00 0.00 53 934.0
20260507132902 16 250 1.6 4.8 0.00 0.00 0.00 55 934.0
20260507132801 16 231 1.6 4.8 0.00 0.00 0.00 56 934.1
20260507132701 16 220 3.2 6.4 0.00 0.00 0.00 55 934.0
20260507132601 16 222 1.6 6.4 0.00 0.00 0.00 58 934.2
20260507132501 16 250 1.6 4.8 0.00 0.00 0.00 57 934.1
20260507132401 16 223 1.6 4.8 0.00 0.00 0.00 56 934.1
20260507132300 15 223 3.2 4.8 0.00 0.00 0.00 57 934.0
20260507132200 15 228 1.6 4.8 0.00 0.00 0.00 58 934.3
20260507132102 15 223 3.2 4.8 0.00 0.00 0.00 55 934.1
20260507132001 15 225 1.6 4.8 0.00 0.00 0.00 56 934.3
20260507131901 15 226 3.2 4.8 0.00 0.00 0.00 59 934.2
20260507131800 15 223 3.2 6.4 0.00 0.00 0.00 58 934.1
20260507131701 15 213 6.4 6.4 0.00 0.00 0.00 58 933.9
20260507131602 15 213 6.4 6.4 0.00 0.00 0.00 58 933.9
20260507131500 15 211 1.6 3.2 0.00 0.00 0.00 59 934.1
20260507131401 15 276 1.6 3.2 0.00 0.00 0.00 56 934.1
20260507131302 15 230 1.6 3.2 0.00 0.00 0.00 56 934.0
20260507131201 15 228 1.6 1.6 0.00 0.00 0.00 58 934.2
20260507131101 15 281 1.6 1.6 0.00 0.00 0.00 56 934.3
20260507131001 16 300 1.6 3.2 0.00 0.00 0.00 57 934.1
20260507130900 16 280 1.6 3.2 0.00 0.00 0.00 55 934.3
20260507130801 16 281 3.2 3.2 0.00 0.00 0.00 54 934.3
20260507130701 16 284 1.6 3.2 0.00 0.00 0.00 57 934.3
20260507130601 16 255 1.6 1.6 0.00 0.00 0.00 61 934.1
20260507130502 16 276 1.6 3.2 0.00 0.00 0.00 57 934.0
20260507130401 16 276 3.2 3.2 0.00 0.00 0.00 56 934.3
20260507130301 16 285 3.2 4.8 0.00 0.00 0.00 55 934.3
20260507130202 16 303 3.2 3.2 0.00 0.00 0.00 57 934.0
20260507130101 15 283 1.6 3.2 0.00 0.00 0.00 56 934.1
20260507130003 15 230 1.6 3.2 0.00 0.00 0.00 60 934.2
20260507125900 15 222 1.6 4.8 0.00 0.00 0.00 58 934.0
20260507125800 15 222 1.6 1.6 0.00 0.00 0.00 56 934.0
20260507125701 15 273 1.6 4.8 0.00 0.00 0.00 57 934.1
20260507125601 15 219 1.6 4.8 0.00 0.00 0.00 58 934.4
20260507125502 15 233 1.6 6.4 0.00 0.00 0.00 58 934.2
20260507125402 15 217 4.8 6.4 0.00 0.00 0.00 58 934.1
20260507125301 15 205 1.6 3.2 0.00 0.00 0.00 57 934.1
20260507125201 15 248 0.0 3.2 0.00 0.00 0.00 56 933.8
20260507125101 15 221 1.6 4.8 0.00 0.00 0.00 56 934.0
20260507125001 15 226 1.6 4.8 0.00 0.00 0.00 57 934.1
20260507124901 15 223 1.6 3.2 0.00 0.00 0.00 57 934.0
20260507124801 15 245 0.0 1.6 0.00 0.00 0.00 59 934.2
20260507124703 15 301 1.6 3.2 0.00 0.00 0.00 58 934.2
20260507124601 15 274 1.6 3.2 0.00 0.00 0.00 59 934.2
20260507124501 15 230 1.6 3.2 0.00 0.00 0.00 59 934.1
20260507124401 15 237 3.2 3.2 0.00 0.00 0.00 60 934.3
20260507124301 15 225 3.2 3.2 0.00 0.00 0.00 59 934.3
20260507124201 15 244 1.6 3.2 0.00 0.00 0.00 58 934.2
20260507124101 15 238 1.6 1.6 0.00 0.00 0.00 58 934.2
20260507124001 15 251 1.6 3.2 0.00 0.00 0.00 58 934.1
20260507123901 15 280 1.6 3.2 0.00 0.00 0.00 58 933.9
20260507123801 15 231 1.6 1.6 0.00 0.00 0.00 59 933.9
20260507123701 15 277 0.0 1.6 0.00 0.00 0.00 58 934.2
20260507123601 15 276 0.0 1.6 0.00 0.00 0.00 58 934.1
20260507123501 15 280 0.0 1.6 0.00 0.00 0.00 56 934.0
20260507123401 15 270 1.6 3.2 0.00 0.00 0.00 57 934.0
20260507123301 15 285 1.6 1.6 0.00 0.00 0.00 57 933.8
20260507123201 15 214 1.6 1.6 0.00 0.00 0.00 56 934.0
20260507123102 15 279 1.6 3.2 0.00 0.00 0.00 56 934.0
20260507123000 15 242 1.6 4.8 0.00 0.00 0.00 57 933.9
20260507122900 15 222 3.2 4.8 0.00 0.00 0.00 58 933.9
20260507122801 16 203 4.8 8.0 0.00 0.00 0.00 57 933.8
20260507122700 16 206 4.8 6.4 0.00 0.00 0.00 56 933.9
20260507122602 16 225 3.2 4.8 0.00 0.00 0.00 55 933.9
20260507122502 16 227 1.6 3.2 0.00 0.00 0.00 54 934.0
20260507122401 16 247 1.6 4.8 0.00 0.00 0.00 54 934.1
20260507122301 16 209 3.2 6.4 0.00 0.00 0.00 55 934.0
20260507122200 16 211 4.8 6.4 0.00 0.00 0.00 56 934.1
20260507122101 16 199 3.2 6.4 0.00 0.00 0.00 54 934.1
20260507122001 16 226 3.2 6.4 0.00 0.00 0.00 53 933.8
20260507121901 16 222 1.6 6.4 0.00 0.00 0.00 56 934.0
20260507121801 16 221 3.2 4.8 0.00 0.00 0.00 56 933.9
20260507121701 16 286 3.2 4.8 0.00 0.00 0.00 56 934.0
20260507121601 16 210 3.2 4.8 0.00 0.00 0.00 57 933.9
20260507121501 15 221 3.2 6.4 0.00 0.00 0.00 56 933.9
20260507121401 15 221 3.2 6.4 0.00 0.00 0.00 56 933.9
20260507121301 15 209 3.2 6.4 0.00 0.00 0.00 57 933.9
20260507121202 15 204 4.8 6.4 0.00 0.00 0.00 59 934.0
20260507121101 15 197 4.8 6.4 0.00 0.00 0.00 56 933.9
20260507121001 15 225 3.2 6.4 0.00 0.00 0.00 56 933.9
20260507120901 15 217 1.6 6.4 0.00 0.00 0.00 57 934.0
20260507120811 15 200 3.2 4.8 0.00 0.00 0.00 57 934.1
20260507120701 15 200 3.2 4.8 0.00 0.00 0.00 56 934.0
20260507120601 15 209 4.8 6.4 0.00 0.00 0.00 58 934.1
20260507120501 15 218 1.6 3.2 0.00 0.00 0.00 61 934.0
20260507120401 15 233 3.2 4.8 0.00 0.00 0.00 58 933.9
20260507120301 15 212 4.8 6.4 0.00 0.00 0.00 56 933.9
20260507120201 15 190 6.4 6.4 0.00 0.00 0.00 55 933.9
20260507120001 15 222 3.2 4.8 0.00 0.00 0.00 55 934.0
20260507115901 15 229 3.2 4.8 0.00 0.00 0.00 58 934.0
20260507115800 15 234 3.2 4.8 0.00 0.00 0.00 63 934.0
20260507115701 15 265 1.6 1.6 0.00 0.00 0.00 60 933.9
20260507115601 15 282 1.6 1.6 0.00 0.00 0.00 61 934.1
20260507115501 15 248 1.6 3.2 0.00 0.00 0.00 59 933.9
20260507115401 15 269 1.6 3.2 0.00 0.00 0.00 59 933.9
20260507115302 15 278 1.6 3.2 0.00 0.00 0.00 59 934.1
20260507115201 14 274 1.6 3.2 0.00 0.00 0.00 59 933.8
20260507115101 14 275 1.6 1.6 0.00 0.00 0.00 60 934.0
20260507115001 14 276 1.6 3.2 0.00 0.00 0.00 60 933.9
20260507114901 14 228 1.6 4.8 0.00 0.00 0.00 60 934.0
20260507114801 14 237 1.6 4.8 0.00 0.00 0.00 61 933.9
20260507114701 14 242 1.6 4.8 0.00 0.00 0.00 61 934.1
20260507114601 14 241 1.6 3.2 0.00 0.00 0.00 60 934.1
20260507114500 14 226 1.6 3.2 0.00 0.00 0.00 60 934.0
20260507114401 15 232 1.6 3.2 0.00 0.00 0.00 60 933.9
20260507114301 15 268 1.6 4.8 0.00 0.00 0.00 60 934.0
20260507114201 15 230 3.2 3.2 0.00 0.00 0.00 59 934.0
20260507114101 15 224 1.6 4.8 0.00 0.00 0.00 59 934.1
20260507114000 15 215 3.2 4.8 0.00 0.00 0.00 59 934.1
20260507113901 15 220 3.2 4.8 0.00 0.00 0.00 60 934.1
20260507113801 15 214 1.6 3.2 0.00 0.00 0.00 61 934.1
20260507113701 15 227 1.6 3.2 0.00 0.00 0.00 59 934.0
20260507113601 15 221 1.6 3.2 0.00 0.00 0.00 60 934.1
20260507113501 15 262 0.0 1.6 0.00 0.00 0.00 61 933.9
20260507113401 15 266 0.0 3.2 0.00 0.00 0.00 60 934.1
20260507113301 15 223 1.6 3.2 0.00 0.00 0.00 62 933.9
20260507113201 15 277 1.6 1.6 0.00 0.00 0.00 62 934.0
20260507113102 15 279 1.6 1.6 0.00 0.00 0.00 61 934.0
20260507113001 15 260 0.0 3.2 0.00 0.00 0.00 61 934.0
20260507112902 15 236 1.6 4.8 0.00 0.00 0.00 60 933.8
20260507112801 15 264 1.6 1.6 0.00 0.00 0.00 59 933.9
20260507112701 15 222 1.6 4.8 0.00 0.00 0.00 59 934.0
20260507112601 15 224 3.2 4.8 0.00 0.00 0.00 59 933.9
20260507112502 15 223 3.2 6.4 0.00 0.00 0.00 60 934.0
20260507112401 15 232 1.6 6.4 0.00 0.00 0.00 59 934.0
20260507112301 15 247 1.6 6.4 0.00 0.00 0.00 58 934.0
20260507112201 15 225 4.8 6.4 0.00 0.00 0.00 59 934.0
20260507112101 15 231 3.2 3.2 0.00 0.00 0.00 59 933.9
20260507112000 15 276 1.6 3.2 0.00 0.00 0.00 58 933.8
20260507111901 15 291 1.6 4.8 0.00 0.00 0.00 58 933.9
20260507111805 15 230 1.6 4.8 0.00 0.00 0.00 58 933.9
20260507111701 15 208 3.2 3.2 0.00 0.00 0.00 59 934.0
20260507111601 15 202 1.6 4.8 0.00 0.00 0.00 58 933.9
20260507111500 15 238 3.2 4.8 0.00 0.00 0.00 62 933.8
20260507111401 15 238 1.6 3.2 0.00 0.00 0.00 59 933.9
20260507111301 15 238 1.6 3.2 0.00 0.00 0.00 59 933.9
20260507111200 15 210 1.6 4.8 0.00 0.00 0.00 59 933.8
20260507111101 15 284 3.2 4.8 0.00 0.00 0.00 58 933.9
20260507111002 15 288 1.6 3.2 0.00 0.00 0.00 57 934.0
20260507110900 15 222 1.6 1.6 0.00 0.00 0.00 60 933.9
20260507110802 15 270 1.6 3.2 0.00 0.00 0.00 60 933.7
20260507110701 15 222 1.6 3.2 0.00 0.00 0.00 60 933.9
20260507110600 15 236 1.6 4.8 0.00 0.00 0.00 63 934.0
20260507110501 15 212 3.2 6.4 0.00 0.00 0.00 63 933.8
20260507110401 15 211 4.8 6.4 0.00 0.00 0.00 61 934.0
20260507110302 15 243 1.6 3.2 0.00 0.00 0.00 61 933.7
20260507110201 14 235 1.6 3.2 0.00 0.00 0.00 62 933.9
20260507110001 15 226 1.6 4.8 0.00 0.00 0.00 62 933.8
20260507105901 15 221 3.2 4.8 0.00 0.00 0.00 62 933.8
20260507105802 15 216 3.2 4.8 0.00 0.00 0.00 61 933.7
20260507105701 15 225 1.6 3.2 0.00 0.00 0.00 62 933.8
20260507105601 15 221 3.2 4.8 0.00 0.00 0.00 61 933.8
20260507105501 15 209 1.6 4.8 0.00 0.00 0.00 63 933.7
20260507105401 15 268 1.6 4.8 0.00 0.00 0.00 63 933.9
20260507105302 15 214 4.8 4.8 0.00 0.00 0.00 63 933.8
20260507105201 15 226 3.2 4.8 0.00 0.00 0.00 63 933.7
20260507105100 14 262 1.6 6.4 0.00 0.00 0.00 61 933.8
20260507105001 14 272 3.2 6.4 0.00 0.00 0.00 62 933.8
20260507104901 14 266 1.6 3.2 0.00 0.00 0.00 62 933.6
20260507104801 14 244 1.6 6.4 0.00 0.00 0.00 61 933.7
20260507104700 15 226 3.2 6.4 0.00 0.00 0.00 61 933.7
20260507104601 15 238 1.6 4.8 0.00 0.00 0.00 61 933.9
20260507104501 15 199 3.2 4.8 0.00 0.00 0.00 59 933.6
20260507104401 15 215 3.2 4.8 0.00 0.00 0.00 61 933.8
20260507104301 15 235 3.2 4.8 0.00 0.00 0.00 61 933.8
20260507104201 15 230 3.2 4.8 0.00 0.00 0.00 61 933.8
20260507104101 15 223 1.6 4.8 0.00 0.00 0.00 61 933.8
20260507104001 15 228 1.6 4.8 0.00 0.00 0.00 64 933.9
20260507103901 14 214 3.2 4.8 0.00 0.00 0.00 62 933.7
20260507103802 14 215 3.2 4.8 0.00 0.00 0.00 66 934.0
20260507103701 14 281 1.6 4.8 0.00 0.00 0.00 63 933.6
20260507103601 15 283 3.2 3.2 0.00 0.00 0.00 63 933.7
20260507103501 15 242 1.6 4.8 0.00 0.00 0.00 63 933.7
20260507103401 14 213 4.8 4.8 0.00 0.00 0.00 64 933.6
20260507103301 14 225 1.6 4.8 0.00 0.00 0.00 66 933.8
20260507103201 14 256 1.6 3.2 0.00 0.00 0.00 64 933.7
20260507103102 14 235 3.2 3.2 0.00 0.00 0.00 64 933.8
20260507102901 15 223 1.6 3.2 0.00 0.00 0.00 62 933.8
20260507102802 15 251 1.6 3.2 0.00 0.00 0.00 63 933.7
20260507102701 15 288 3.2 3.2 0.00 0.00 0.00 62 933.8
20260507102601 15 278 3.2 3.2 0.00 0.00 0.00 62 933.7
20260507102502 15 297 1.6 3.2 0.00 0.00 0.00 66 933.7
20260507102402 15 224 1.6 4.8 0.00 0.00 0.00 63 933.7
20260507102301 15 230 3.2 4.8 0.00 0.00 0.00 63 933.6
20260507102201 15 242 3.2 4.8 0.00 0.00 0.00 63 933.7
20260507102100 15 239 3.2 4.8 0.00 0.00 0.00 63 933.7
20260507102000 15 227 1.6 3.2 0.00 0.00 0.00 64 933.8
20260507101901 15 226 1.6 4.8 0.00 0.00 0.00 64 933.6
20260507101800 15 233 1.6 6.4 0.00 0.00 0.00 64 933.7
20260507101701 15 191 3.2 6.4 0.00 0.00 0.00 65 933.7
20260507101601 15 229 1.6 4.8 0.00 0.00 0.00 65 933.6
20260507101501 15 225 1.6 6.4 0.00 0.00 0.00 63 933.7
20260507101401 15 212 4.8 6.4 0.00 0.00 0.00 65 933.6
20260507101301 15 212 4.8 6.4 0.00 0.00 0.00 65 933.6
20260507101201 15 219 4.8 6.4 0.00 0.00 0.00 63 933.8
20260507101101 15 212 3.2 6.4 0.00 0.00 0.00 65 933.7
20260507101001 15 223 3.2 4.8 0.00 0.00 0.00 63 933.7
20260507100901 15 223 1.6 4.8 0.00 0.00 0.00 63 933.6
20260507100801 15 213 1.6 4.8 0.00 0.00 0.00 65 933.7
20260507100700 15 180 1.6 4.8 0.00 0.00 0.00 64 933.6
20260507100601 14 230 3.2 4.8 0.00 0.00 0.00 67 933.4
20260507100500 14 234 1.6 4.8 0.00 0.00 0.00 63 933.5
20260507100400 14 235 1.6 4.8 0.00 0.00 0.00 64 933.7
20260507100301 14 219 1.6 4.8 0.00 0.00 0.00 66 933.6
20260507100201 14 200 4.8 6.4 0.00 0.00 0.00 66 933.6
20260507100106 13 215 4.8 6.4 0.00 0.00 0.00 66 933.6
20260507100001 13 218 4.8 6.4 0.00 0.00 0.00 67 933.8
20260507095901 13 234 1.6 6.4 0.00 0.00 0.00 66 933.8
20260507095802 13 232 3.2 6.4 0.00 0.00 0.00 64 933.8
20260507095701 13 229 1.6 4.8 0.00 0.00 0.00 65 933.7
20260507095601 13 215 4.8 4.8 0.00 0.00 0.00 64 933.5
20260507095501 13 246 3.2 3.2 0.00 0.00 0.00 65 933.7
20260507095401 13 237 1.6 3.2 0.00 0.00 0.00 67 933.7
20260507095301 13 281 1.6 1.6 0.00 0.00 0.00 68 933.7
20260507095201 13 279 1.6 4.8 0.00 0.00 0.00 67 933.6
20260507095101 14 236 3.2 4.8 0.00 0.00 0.00 66 933.7
20260507095006 14 281 3.2 4.8 0.00 0.00 0.00 66 933.4
20260507094901 15 226 3.2 3.2 0.00 0.00 0.00 65 933.8
20260507094801 15 244 1.6 3.2 0.00 0.00 0.00 64 933.6
20260507094701 15 235 1.6 4.8 0.00 0.00 0.00 63 933.5
20260507094601 15 218 4.8 4.8 0.00 0.00 0.00 67 933.6
20260507094501 14 214 4.8 4.8 0.00 0.00 0.00 66 933.6
20260507094405 14 217 1.6 4.8 0.00 0.00 0.00 67 933.5
20260507094301 14 222 1.6 4.8 0.00 0.00 0.00 69 933.7
20260507094201 13 280 1.6 1.6 0.00 0.00 0.00 67 933.5
20260507094101 13 237 1.6 3.2 0.00 0.00 0.00 67 933.7
20260507094001 13 278 1.6 3.2 0.00 0.00 0.00 67 933.4
20260507093901 14 278 1.6 3.2 0.00 0.00 0.00 67 933.5
20260507093802 14 256 1.6 4.8 0.00 0.00 0.00 66 933.5
20260507093701 14 228 1.6 6.4 0.00 0.00 0.00 68 933.5
20260507093601 14 207 3.2 6.4 0.00 0.00 0.00 65 933.7
20260507093501 13 236 1.6 4.8 0.00 0.00 0.00 71 933.4
20260507093401 13 259 1.6 4.8 0.00 0.00 0.00 67 933.5
20260507093300 13 231 1.6 4.8 0.00 0.00 0.00 67 933.6
20260507093200 13 209 3.2 4.8 0.00 0.00 0.00 68 933.5
20260507093100 13 221 3.2 4.8 0.00 0.00 0.00 69 933.4
20260507093000 14 223 1.6 4.8 0.00 0.00 0.00 68 933.4
20260507092900 14 232 3.2 4.8 0.00 0.00 0.00 66 933.7
20260507092801 14 206 4.8 4.8 0.00 0.00 0.00 65 933.5
20260507092700 14 221 3.2 6.4 0.00 0.00 0.00 66 933.5
20260507092601 14 222 3.2 6.4 0.00 0.00 0.00 69 933.4
20260507092500 14 213 1.6 4.8 0.00 0.00 0.00 73 933.5
20260507092401 13 220 3.2 6.4 0.00 0.00 0.00 70 933.4
20260507092301 13 213 4.8 6.4 0.00 0.00 0.00 70 933.2
20260507092202 13 227 3.2 4.8 0.00 0.00 0.00 69 933.5
20260507092101 13 217 3.2 4.8 0.00 0.00 0.00 69 933.5
20260507092001 13 283 1.6 4.8 0.00 0.00 0.00 69 933.3
20260507091901 13 228 1.6 4.8 0.00 0.00 0.00 70 933.4
20260507091800 13 247 3.2 3.2 0.00 0.00 0.00 69 933.5
20260507091701 13 236 3.2 3.2 0.00 0.00 0.00 68 933.3
20260507091601 13 241 1.6 4.8 0.00 0.00 0.00 67 933.4
20260507091501 14 283 3.2 6.4 0.00 0.00 0.00 70 933.5
20260507091401 14 205 4.8 6.4 0.00 0.00 0.00 69 933.3
20260507091301 14 164 4.8 4.8 0.00 0.00 0.00 66 933.4
20260507091202 14 164 4.8 4.8 0.00 0.00 0.00 66 933.4
20260507091102 14 222 4.8 4.8 0.00 0.00 0.00 67 933.4
20260507091000 14 203 4.8 6.4 0.00 0.00 0.00 68 933.4
20260507090901 14 203 4.8 6.4 0.00 0.00 0.00 68 933.4
20260507090801 13 216 4.8 4.8 0.00 0.00 0.00 71 933.2
20260507090702 13 242 1.6 4.8 0.00 0.00 0.00 69 933.3
20260507090601 13 224 1.6 4.8 0.00 0.00 0.00 69 933.3
20260507090501 13 216 4.8 4.8 0.00 0.00 0.00 69 933.3
20260507090401 13 187 1.6 4.8 0.00 0.00 0.00 68 933.3
20260507090301 13 225 3.2 4.8 0.00 0.00 0.00 69 933.3
20260507090200 13 172 1.6 4.8 0.00 0.00 0.00 69 933.3
20260507090100 13 222 1.6 6.4 0.00 0.00 0.00 69 933.4
20260507090002 13 224 3.2 6.4 0.00 0.00 0.00 70 933.4
20260507085901 13 229 1.6 3.2 0.00 0.00 0.00 70 933.2
20260507085800 13 271 1.6 4.8 0.00 0.00 0.00 70 933.2
20260507085702 13 231 3.2 4.8 0.00 0.00 0.00 70 933.3
20260507085601 13 193 3.2 4.8 0.00 0.00 0.00 68 933.2
20260507085501 13 230 1.6 3.2 0.00 0.00 0.00 68 933.0
20260507085401 13 291 1.6 3.2 0.00 0.00 0.00 69 933.2
20260507085301 12 241 1.6 3.2 0.00 0.00 0.00 73 933.4
20260507085201 12 214 1.6 3.2 0.00 0.00 0.00 72 933.3
20260507085101 12 222 1.6 3.2 0.00 0.00 0.00 72 933.4
20260507085001 12 235 1.6 3.2 0.00 0.00 0.00 71 933.1
20260507084901 12 220 1.6 3.2 0.00 0.00 0.00 72 933.2
20260507084801 12 261 1.6 3.2 0.00 0.00 0.00 71 933.2
20260507084702 12 220 1.6 4.8 0.00 0.00 0.00 70 933.1
20260507084601 12 284 1.6 4.8 0.00 0.00 0.00 70 933.2
20260507084501 12 222 1.6 4.8 0.00 0.00 0.00 70 933.2
20260507084401 12 224 3.2 4.8 0.00 0.00 0.00 70 933.2
20260507084301 13 234 1.6 3.2 0.00 0.00 0.00 71 933.1
20260507084200 13 223 1.6 6.4 0.00 0.00 0.00 72 933.2
20260507084101 13 223 4.8 6.4 0.00 0.00 0.00 71 933.1
20260507084001 13 282 1.6 4.8 0.00 0.00 0.00 71 932.9
20260507083901 13 205 3.2 4.8 0.00 0.00 0.00 71 932.9
20260507083801 13 284 1.6 3.2 0.00 0.00 0.00 70 933.0
20260507083701 12 260 1.6 4.8 0.00 0.00 0.00 75 933.2
20260507083601 12 276 1.6 4.8 0.00 0.00 0.00 74 933.1
20260507083501 12 205 1.6 4.8 0.00 0.00 0.00 76 933.0
20260507083401 12 185 3.2 4.8 0.00 0.00 0.00 75 933.0
20260507083302 12 208 4.8 4.8 0.00 0.00 0.00 74 932.9
20260507083201 12 201 3.2 4.8 0.00 0.00 0.00 74 933.0
20260507083101 12 282 1.6 3.2 0.00 0.00 0.00 74 933.1
20260507083001 12 234 1.6 3.2 0.00 0.00 0.00 73 933.0
20260507082901 12 283 1.6 4.8 0.00 0.00 0.00 73 933.2
20260507082801 12 282 1.6 4.8 0.00 0.00 0.00 74 933.0
20260507082701 12 232 1.6 3.2 0.00 0.00 0.00 74 932.8
20260507082601 12 240 1.6 4.8 0.00 0.00 0.00 74 933.1
20260507082501 12 283 1.6 4.8 0.00 0.00 0.00 76 932.9
20260507082402 12 188 4.8 4.8 0.00 0.00 0.00 77 933.0
20260507082301 12 193 4.8 4.8 0.00 0.00 0.00 75 933.1
20260507082201 12 222 1.6 4.8 0.00 0.00 0.00 76 933.0
20260507082100 12 208 3.2 4.8 0.00 0.00 0.00 75 932.9
20260507082001 12 218 3.2 4.8 0.00 0.00 0.00 75 933.1
20260507081901 12 236 0.0 1.6 0.00 0.00 0.00 76 932.9
20260507081802 12 269 0.0 1.6 0.00 0.00 0.00 76 932.8
20260507081700 12 256 0.0 1.6 0.00 0.00 0.00 76 933.0
20260507081601 12 284 0.0 1.6 0.00 0.00 0.00 77 933.0
20260507081501 12 284 0.0 1.6 0.00 0.00 0.00 76 933.0
20260507081402 12 240 0.0 1.6 0.00 0.00 0.00 76 932.9
20260507081301 12 234 1.6 1.6 0.00 0.00 0.00 75 933.0
20260507081201 12 243 1.6 1.6 0.00 0.00 0.00 76 932.9
20260507081101 12 220 0.0 3.2 0.00 0.00 0.00 75 933.0
20260507081001 12 220 0.0 3.2 0.00 0.00 0.00 75 933.0
20260507080901 12 226 1.6 4.8 0.00 0.00 0.00 76 933.0
20260507080801 12 219 1.6 4.8 0.00 0.00 0.00 76 932.9
20260507080700 12 213 1.6 4.8 0.00 0.00 0.00 77 932.9
20260507080601 12 245 1.6 4.8 0.00 0.00 0.00 80 932.8
20260507080501 12 289 1.6 3.2 0.00 0.00 0.00 79 933.0
20260507080401 11 206 1.6 3.2 0.00 0.00 0.00 79 933.0
20260507080301 11 217 1.6 3.2 0.00 0.00 0.00 80 932.9
20260507080202 11 201 1.6 4.8 0.00 0.00 0.00 79 933.0
20260507080002 11 209 3.2 4.8 0.00 0.00 0.00 78 932.9
20260507075901 11 204 3.2 4.8 0.00 0.00 0.00 77 932.9
20260507075801 11 211 3.2 4.8 0.00 0.00 0.00 80 933.0
20260507075700 11 229 0.0 1.6 0.00 0.00 0.00 79 933.0
20260507075601 11 277 1.6 1.6 0.00 0.00 0.00 79 932.8
20260507075501 11 274 1.6 1.6 0.00 0.00 0.00 79 933.0
20260507075401 11 279 1.6 3.2 0.00 0.00 0.00 78 932.8
20260507075300 11 219 1.6 3.2 0.00 0.00 0.00 78 932.9
20260507075201 11 279 1.6 3.2 0.00 0.00 0.00 79 933.1
20260507075101 11 248 1.6 3.2 0.00 0.00 0.00 79 932.9
20260507075001 11 247 1.6 3.2 0.00 0.00 0.00 78 933.0
20260507074900 11 238 1.6 3.2 0.00 0.00 0.00 78 932.9
20260507074801 11 275 1.6 1.6 0.00 0.00 0.00 80 932.8
20260507074701 11 286 1.6 1.6 0.00 0.00 0.00 81 933.0
20260507074600 11 277 1.6 4.8 0.00 0.00 0.00 80 933.0
20260507074501 11 296 1.6 6.4 0.00 0.00 0.00 81 932.9
20260507074401 11 203 4.8 6.4 0.00 0.00 0.00 80 932.8
20260507074301 11 227 3.2 6.4 0.00 0.00 0.00 81 932.9
20260507074201 11 230 1.6 4.8 0.00 0.00 0.00 82 932.6
20260507074101 11 222 1.6 4.8 0.00 0.00 0.00 82 932.8
20260507074001 11 215 3.2 4.8 0.00 0.00 0.00 83 932.8
20260507073901 11 233 1.6 3.2 0.00 0.00 0.00 84 932.9
20260507073802 11 232 0.0 3.2 0.00 0.00 0.00 84 932.9
20260507073701 11 225 1.6 3.2 0.00 0.00 0.00 84 932.8
20260507073601 11 220 3.2 3.2 0.00 0.00 0.00 84 932.9
20260507073501 11 218 1.6 3.2 0.00 0.00 0.00 83 932.9
20260507073401 11 227 1.6 3.2 0.00 0.00 0.00 83 933.0
20260507073300 11 275 1.6 3.2 0.00 0.00 0.00 84 932.9
20260507073201 11 218 1.6 3.2 0.00 0.00 0.00 83 933.0
20260507073102 11 222 1.6 4.8 0.00 0.00 0.00 84 932.9
20260507073002 11 221 3.2 4.8 0.00 0.00 0.00 83 932.7
20260507072901 11 246 1.6 3.2 0.00 0.00 0.00 84 933.0
20260507072801 11 231 1.6 3.2 0.00 0.00 0.00 84 932.8
20260507072701 11 220 1.6 3.2 0.00 0.00 0.00 84 932.9
20260507072601 11 244 1.6 6.4 0.00 0.00 0.00 84 932.9
20260507072501 11 224 4.8 6.4 0.00 0.00 0.00 84 932.9
20260507072400 11 212 3.2 4.8 0.00 0.00 0.00 85 932.9
20260507072301 11 224 3.2 4.8 0.00 0.00 0.00 86 932.7
20260507072201 11 214 3.2 4.8 0.00 0.00 0.00 86 932.9
20260507072101 11 212 3.2 4.8 0.00 0.00 0.00 86 932.7
20260507072001 11 219 3.2 4.8 0.00 0.00 0.00 86 932.9
20260507071901 11 210 3.2 4.8 0.00 0.00 0.00 86 932.8
20260507071801 11 221 3.2 4.8 0.00 0.00 0.00 87 932.7
20260507071701 11 212 3.2 4.8 0.00 0.00 0.00 86 932.8
20260507071601 11 225 3.2 4.8 0.00 0.00 0.00 86 932.8
20260507071502 11 221 1.6 4.8 0.00 0.00 0.00 87 932.7
20260507071401 11 266 1.6 1.6 0.00 0.00 0.00 86 932.8
20260507071302 11 264 1.6 1.6 0.00 0.00 0.00 86 932.6
20260507071201 11 242 1.6 4.8 0.00 0.00 0.00 86 932.8
20260507071101 11 238 1.6 4.8 0.00 0.00 0.00 86 932.6
20260507071001 11 227 3.2 4.8 0.00 0.00 0.00 86 932.5
20260507070901 11 227 3.2 4.8 0.00 0.00 0.00 86 932.5
20260507070801 11 229 3.2 6.4 0.00 0.00 0.00 87 932.8
20260507070701 11 204 4.8 6.4 0.00 0.00 0.00 87 932.6
20260507070600 10 204 3.2 4.8 0.00 0.00 0.00 87 932.7
20260507070502 10 213 4.8 4.8 0.00 0.00 0.00 87 932.8
20260507070401 10 231 1.6 4.8 0.00 0.00 0.00 88 932.6
20260507070302 10 209 1.6 4.8 0.00 0.00 0.00 88 932.5
20260507070201 10 215 4.8 4.8 0.00 0.00 0.00 88 932.6
20260507070001 10 220 4.8 6.4 0.00 0.00 0.00 88 932.7
20260507065901 10 210 3.2 6.4 0.00 0.00 0.00 88 932.6
20260507065801 10 220 3.2 4.8 0.00 0.00 0.00 88 932.8
20260507065701 10 214 3.2 4.8 0.00 0.00 0.00 88 932.7
20260507065601 10 223 3.2 4.8 0.00 0.00 0.00 88 932.6
20260507065501 10 217 4.8 4.8 0.00 0.00 0.00 88 932.5
20260507065401 10 207 1.6 3.2 0.00 0.00 0.00 88 932.5
20260507065301 10 223 1.6 3.2 0.00 0.00 0.00 88 932.6
20260507065201 10 284 1.6 1.6 0.00 0.00 0.00 88 932.6
20260507065100 10 254 1.6 3.2 0.00 0.00 0.00 87 932.8
20260507065002 10 220 1.6 3.2 0.00 0.00 0.00 87 932.5
20260507064901 10 235 1.6 3.2 0.00 0.00 0.00 88 932.6
20260507064801 10 266 1.6 3.2 0.00 0.00 0.00 87 932.5
20260507064701 10 287 1.6 1.6 0.00 0.00 0.00 88 932.6
20260507064601 10 276 1.6 3.2 0.00 0.00 0.00 88 932.9
20260507064500 10 259 1.6 3.2 0.00 0.00 0.00 88 932.6
20260507064401 10 236 1.6 3.2 0.00 0.00 0.00 88 932.8
20260507064301 10 225 1.6 3.2 0.00 0.00 0.00 88 932.5
20260507064201 10 270 1.6 3.2 0.00 0.00 0.00 88 932.7
20260507064101 10 273 1.6 3.2 0.00 0.00 0.00 88 932.4
20260507064000 10 259 1.6 3.2 0.00 0.00 0.00 88 932.5
20260507063901 10 284 1.6 3.2 0.00 0.00 0.00 88 932.6
20260507063801 10 233 1.6 3.2 0.00 0.00 0.00 88 932.4
20260507063701 10 236 1.6 3.2 0.00 0.00 0.00 89 932.5
20260507063600 10 247 1.6 4.8 0.00 0.00 0.00 89 932.5
20260507063502 10 236 3.2 4.8 0.00 0.00 0.00 89 932.5
20260507063401 10 228 1.6 1.6 0.00 0.00 0.00 90 932.3
20260507063301 10 232 1.6 1.6 0.00 0.00 0.00 90 932.5
20260507063201 10 219 1.6 3.2 0.00 0.00 0.00 90 932.5
20260507063101 10 228 1.6 3.2 0.00 0.00 0.00 90 932.5
20260507063002 10 249 1.6 3.2 0.00 0.00 0.00 90 932.4
20260507062901 10 223 1.6 4.8 0.00 0.00 0.00 91 932.5
20260507062801 10 208 3.2 4.8 0.00 0.00 0.00 90 932.4
20260507062701 10 230 1.6 4.8 0.00 0.00 0.00 90 932.2
20260507062601 10 235 3.2 4.8 0.00 0.00 0.00 91 932.5
20260507062500 10 226 1.6 1.6 0.00 0.00 0.00 90 932.5
20260507062401 10 228 1.6 4.8 0.00 0.00 0.00 90 932.4
20260507062301 10 210 1.6 4.8 0.00 0.00 0.00 90 932.5
20260507062201 10 223 3.2 3.2 0.00 0.00 0.00 90 932.4
20260507062101 10 233 1.6 4.8 0.00 0.00 0.00 90 932.2
20260507062001 10 231 1.6 4.8 0.00 0.00 0.00 90 932.5
20260507061901 10 222 1.6 3.2 0.00 0.00 0.00 90 932.3
20260507061800 10 202 3.2 3.2 0.00 0.00 0.00 90 932.2
20260507061701 10 238 1.6 4.8 0.00 0.00 0.00 90 932.2
20260507061601 10 230 1.6 4.8 0.00 0.00 0.00 90 932.1
20260507061502 10 218 3.2 6.4 0.00 0.00 0.00 89 932.1
20260507061401 10 227 4.8 6.4 0.00 0.00 0.00 90 932.2
20260507061301 10 216 4.8 6.4 0.00 0.00 0.00 90 932.0
20260507061201 10 213 1.6 4.8 0.00 0.00 0.00 89 931.9
20260507061101 10 223 3.2 6.4 0.00 0.00 0.00 89 932.2
20260507061002 10 223 3.2 6.4 0.00 0.00 0.00 89 932.2
20260507060901 10 221 3.2 4.8 0.00 0.00 0.00 90 932.1
20260507060801 10 221 3.2 4.8 0.00 0.00 0.00 90 932.1
20260507060701 10 225 1.6 3.2 0.00 0.00 0.00 90 932.0
20260507060601 10 226 1.6 4.8 0.00 0.00 0.00 90 932.0
20260507060501 10 222 1.6 4.8 0.00 0.00 0.00 90 932.0
20260507060400 10 213 1.6 3.2 0.00 0.00 0.00 90 932.0
20260507060301 10 267 1.6 1.6 0.00 0.00 0.00 90 932.1
20260507060202 10 256 1.6 1.6 0.00 0.00 0.00 90 932.0
20260507060100 10 218 0.0 3.2 0.00 0.00 0.00 90 932.0
20260507060001 10 218 1.6 1.6 0.00 0.00 0.00 91 932.0
20260507055901 10 221 1.6 1.6 0.00 0.00 0.00 91 931.9
20260507055801 10 221 1.6 3.2 0.00 0.00 0.00 91 932.1
20260507055701 10 192 1.6 1.6 0.00 0.00 0.00 91 931.9
20260507055601 10 227 0.0 1.6 0.00 0.00 0.00 91 931.9
20260507055501 10 220 1.6 1.6 0.00 0.00 0.00 91 931.9
20260507055400 10 219 1.6 3.2 0.00 0.00 0.00 91 931.9
20260507055301 10 231 0.0 3.2 0.00 0.00 0.00 91 931.7
20260507055201 10 215 1.6 4.8 0.00 0.00 0.00 91 931.9
20260507055101 10 209 3.2 4.8 0.00 0.00 0.00 91 931.8
20260507055001 10 222 3.2 3.2 0.00 0.00 0.00 91 931.9
20260507054902 10 215 1.6 3.2 0.00 0.00 0.00 90 931.9
20260507054801 10 216 3.2 3.2 0.00 0.00 0.00 90 932.1
20260507054701 10 223 1.6 3.2 0.00 0.00 0.00 90 931.8
20260507054601 10 222 3.2 3.2 0.00 0.00 0.00 90 932.0
20260507054501 10 236 1.6 3.2 0.00 0.00 0.00 91 932.0
20260507054401 10 220 1.6 1.6 0.00 0.00 0.00 91 931.8
20260507054301 10 235 1.6 1.6 0.00 0.00 0.00 91 931.9
20260507054201 10 244 1.6 3.2 0.00 0.00 0.00 91 932.0
20260507054101 10 225 1.6 3.2 0.00 0.00 0.00 91 931.9
20260507054000 10 221 1.6 1.6 0.00 0.00 0.00 91 931.9
20260507053901 10 217 1.6 1.6 0.00 0.00 0.00 91 931.9
20260507053801 10 219 1.6 3.2 0.00 0.00 0.00 91 932.0
20260507053701 10 211 1.6 3.2 0.00 0.00 0.00 91 931.7
20260507053601 10 207 1.6 3.2 0.00 0.00 0.00 91 932.0
20260507053501 10 223 1.6 3.2 0.00 0.00 0.00 91 931.9
20260507053401 10 216 3.2 3.2 0.00 0.00 0.00 91 931.9
20260507053301 10 215 1.6 3.2 0.00 0.00 0.00 91 931.8
20260507053100 10 216 3.2 4.8 0.00 0.00 0.00 91 931.6
20260507053000 10 221 1.6 3.2 0.00 0.00 0.00 91 931.7
20260507052901 10 224 1.6 4.8 0.00 0.00 0.00 91 931.7
20260507052801 10 212 3.2 4.8 0.00 0.00 0.00 91 931.6
20260507052701 10 221 1.6 4.8 0.00 0.00 0.00 91 931.6
20260507052600 10 210 1.6 4.8 0.00 0.00 0.00 91 931.6
20260507052501 10 212 3.2 4.8 0.00 0.00 0.00 92 931.7
20260507052401 10 190 3.2 4.8 0.00 0.00 0.00 92 931.5
20260507052300 10 205 3.2 3.2 0.00 0.00 0.00 92 931.8
20260507052202 10 214 3.2 3.2 0.00 0.00 0.00 92 931.7
20260507052101 10 194 3.2 4.8 0.00 0.00 0.00 92 931.5
20260507052001 10 219 3.2 4.8 0.00 0.00 0.00 92 931.7
20260507051901 10 231 3.2 4.8 0.00 0.00 0.00 92 931.8
20260507051801 10 207 3.2 4.8 0.00 0.00 0.00 92 931.7
20260507051706 10 211 3.2 3.2 0.00 0.00 0.00 92 931.5
20260507051601 10 228 1.6 3.2 0.00 0.00 0.00 92 931.7
20260507051506 10 212 3.2 4.8 0.00 0.00 0.00 92 931.5
20260507051402 10 211 4.8 4.8 0.00 0.00 0.00 92 931.7
20260507051301 10 205 3.2 4.8 0.00 0.00 0.00 92 931.8
20260507051201 10 217 3.2 4.8 0.00 0.00 0.00 92 931.6
20260507051101 10 221 3.2 4.8 0.00 0.00 0.00 92 931.7
20260507050901 10 217 3.2 4.8 0.00 0.00 0.00 92 931.6
20260507050800 10 218 3.2 4.8 0.00 0.00 0.00 92 931.6
20260507050700 10 218 3.2 4.8 0.00 0.00 0.00 92 931.6
20260507050601 10 218 3.2 4.8 0.00 0.00 0.00 92 931.7
20260507050501 10 200 3.2 4.8 0.00 0.00 0.00 93 931.6
20260507050402 10 246 1.6 3.2 0.00 0.00 0.00 93 931.5
20260507050301 10 220 1.6 3.2 0.00 0.00 0.00 93 931.6
20260507050201 10 217 1.6 3.2 0.00 0.00 0.00 93 931.7
20260507050100 10 232 1.6 3.2 0.00 0.00 0.00 93 931.6
20260507050006 10 208 3.2 3.2 0.00 0.00 0.00 93 931.5
20260507045901 10 212 1.6 3.2 0.00 0.00 0.00 93 931.5
20260507045801 10 222 1.6 3.2 0.00 0.00 0.00 93 931.6
20260507045701 10 223 1.6 3.2 0.00 0.00 0.00 93 931.5
20260507045601 10 224 1.6 3.2 0.00 0.00 0.00 93 931.5
20260507045500 10 213 1.6 3.2 0.00 0.00 0.00 93 931.5
20260507045400 10 218 3.2 3.2 0.00 0.00 0.00 93 931.4
20260507045301 10 229 1.6 3.2 0.00 0.00 0.00 93 931.5
20260507045201 10 238 1.6 3.2 0.00 0.00 0.00 93 931.5
20260507045101 10 216 3.2 3.2 0.00 0.00 0.00 93 931.3
20260507045002 10 219 1.6 3.2 0.00 0.00 0.00 93 931.4
20260507044903 10 222 1.6 3.2 0.00 0.00 0.00 93 931.5
20260507044801 10 215 1.6 3.2 0.00 0.00 0.00 93 931.4
20260507044701 10 228 1.6 3.2 0.00 0.00 0.00 93 931.4
20260507044601 10 234 1.6 3.2 0.00 0.00 0.00 93 931.4
20260507044501 10 219 0.0 1.6 0.00 0.00 0.00 93 931.3
20260507044400 10 222 1.6 1.6 0.00 0.00 0.00 93 931.3
20260507044201 10 217 1.6 1.6 0.00 0.00 0.00 93 931.3
20260507044101 10 225 1.6 1.6 0.00 0.00 0.00 93 931.4
20260507044001 10 220 1.6 3.2 0.00 0.00 0.00 93 931.3
20260507043901 10 230 1.6 3.2 0.00 0.00 0.00 93 931.1
20260507043802 10 237 1.6 3.2 0.00 0.00 0.00 93 931.4
20260507043701 10 227 1.6 3.2 0.00 0.00 0.00 92 931.1
20260507043601 10 228 1.6 3.2 0.00 0.00 0.00 92 931.3
20260507043502 10 230 1.6 4.8 0.00 0.00 0.00 92 931.4
20260507043400 10 220 1.6 3.2 0.00 0.00 0.00 92 931.2
20260507043301 10 233 0.0 1.6 0.00 0.00 0.00 92 931.4
20260507043207 10 237 1.6 1.6 0.00 0.00 0.00 92 931.1
20260507043101 10 230 1.6 3.2 0.00 0.00 0.00 92 931.2
20260507043001 10 227 1.6 3.2 0.00 0.00 0.00 92 931.1
20260507042902 10 232 1.6 3.2 0.00 0.00 0.00 92 931.2
20260507042801 10 225 1.6 3.2 0.00 0.00 0.00 92 931.1
20260507042701 10 233 1.6 3.2 0.00 0.00 0.00 92 931.1
20260507042601 10 249 1.6 1.6 0.00 0.00 0.00 92 931.4
20260507042501 10 245 1.6 3.2 0.00 0.00 0.00 92 931.2
20260507042402 10 233 1.6 3.2 0.00 0.00 0.00 93 930.9
20260507042301 10 232 0.0 3.2 0.00 0.00 0.00 93 931.1
20260507042200 10 227 1.6 3.2 0.00 0.00 0.00 93 931.2
20260507042102 10 228 1.6 3.2 0.00 0.00 0.00 93 931.1
20260507042001 10 227 1.6 3.2 0.00 0.00 0.00 93 931.2
20260507041900 10 218 1.6 1.6 0.00 0.00 0.00 93 931.2
20260507041801 10 236 1.6 3.2 0.00 0.00 0.00 93 931.1
20260507041701 10 235 1.6 3.2 0.00 0.00 0.00 93 930.9
20260507041601 10 262 1.6 1.6 0.00 0.00 0.00 93 931.0
20260507041501 10 233 1.6 1.6 0.00 0.00 0.00 93 930.8
20260507041401 10 237 1.6 1.6 0.00 0.00 0.00 93 930.9
20260507041301 10 270 0.0 1.6 0.00 0.00 0.00 93 930.7
20260507041201 10 254 0.0 1.6 0.00 0.00 0.00 93 930.8
20260507041100 10 246 0.0 1.6 0.00 0.00 0.00 93 930.9
20260507041003 10 270 0.0 1.6 0.00 0.00 0.00 93 930.9
20260507040901 10 244 1.6 3.2 0.00 0.00 0.00 93 930.7
20260507040800 10 287 1.6 3.2 0.00 0.00 0.00 93 930.8
20260507040701 10 287 1.6 3.2 0.00 0.00 0.00 93 930.8
20260507040601 10 285 0.0 1.6 0.00 0.00 0.00 93 930.8
20260507040501 10 257 1.6 1.6 0.00 0.00 0.00 93 930.7
20260507040401 10 241 0.0 1.6 0.00 0.00 0.00 93 930.8
20260507040302 10 282 1.6 1.6 0.00 0.00 0.00 93 930.9
20260507040201 10 284 1.6 1.6 0.00 0.00 0.00 93 930.8
20260507040001 10 243 0.0 1.6 0.00 0.00 0.00 93 930.9
20260507035901 10 248 1.6 1.6 0.00 0.00 0.00 93 930.7
20260507035801 10 232 1.6 1.6 0.00 0.00 0.00 93 930.9
20260507035701 10 252 1.6 3.2 0.00 0.00 0.00 93 930.9
20260507035601 10 230 1.6 1.6 0.00 0.00 0.00 93 930.9
20260507035501 10 245 1.6 1.6 0.00 0.00 0.00 93 930.9
20260507035401 10 244 1.6 3.2 0.00 0.00 0.00 93 931.0
20260507035301 10 223 1.6 1.6 0.00 0.00 0.00 93 930.8
20260507035201 10 256 1.6 1.6 0.00 0.00 0.00 93 930.9
20260507035101 10 228 1.6 1.6 0.00 0.00 0.00 93 930.8
20260507035001 10 242 0.0 1.6 0.00 0.00 0.00 93 930.6
20260507034901 10 230 1.6 1.6 0.00 0.00 0.00 93 930.7
20260507034801 10 281 1.6 3.2 0.00 0.00 0.00 93 930.9
20260507034701 10 226 1.6 3.2 0.00 0.00 0.00 93 930.6
20260507034601 10 251 1.6 1.6 0.00 0.00 0.00 93 931.0
20260507034501 10 234 0.0 3.2 0.00 0.00 0.00 93 930.9
20260507034401 10 223 1.6 3.2 0.00 0.00 0.00 93 930.9
20260507034305 10 219 1.6 1.6 0.00 0.00 0.00 93 930.8
20260507034201 10 213 0.0 1.6 0.00 0.00 0.00 93 930.6
20260507034102 10 216 1.6 1.6 0.00 0.00 0.00 93 930.8
20260507034000 10 221 1.6 1.6 0.00 0.00 0.00 93 930.9
20260507033901 10 213 1.6 1.6 0.00 0.00 0.00 93 930.8
20260507033801 10 213 0.0 1.6 0.00 0.00 0.00 93 930.6
20260507033701 10 217 0.0 3.2 0.00 0.00 0.00 93 930.8
20260507033602 10 221 1.6 3.2 0.00 0.00 0.00 93 930.8
20260507033501 10 213 1.6 1.6 0.00 0.00 0.00 93 930.8
20260507033401 10 215 1.6 1.6 0.00 0.00 0.00 92 930.7
20260507033301 10 210 1.6 1.6 0.00 0.00 0.00 92 930.7
20260507033203 10 205 1.6 1.6 0.00 0.00 0.00 92 930.8
20260507033101 10 208 1.6 1.6 0.00 0.00 0.00 92 930.6
20260507033001 10 219 1.6 1.6 0.00 0.00 0.00 92 930.6
20260507032901 10 217 1.6 1.6 0.00 0.00 0.00 92 930.7
20260507032801 10 194 1.6 1.6 0.00 0.00 0.00 92 930.5
20260507032701 10 209 1.6 3.2 0.00 0.00 0.00 92 930.6
20260507032602 10 208 1.6 3.2 0.00 0.00 0.00 92 930.7
20260507032501 10 219 3.2 3.2 0.00 0.00 0.00 92 930.8
20260507032401 10 209 1.6 1.6 0.00 0.00 0.00 92 930.6
20260507032301 10 219 1.6 1.6 0.00 0.00 0.00 92 930.8
20260507032201 10 213 1.6 3.2 0.00 0.00 0.00 92 930.8
20260507032100 10 222 1.6 3.2 0.00 0.00 0.00 91 930.7
20260507032001 10 217 1.6 1.6 0.00 0.00 0.00 91 930.6
20260507031902 10 213 1.6 3.2 0.00 0.00 0.00 91 930.7
20260507031801 10 213 1.6 4.8 0.00 0.00 0.00 91 930.6
20260507031701 10 219 3.2 4.8 0.00 0.00 0.00 91 930.7
20260507031601 10 211 3.2 4.8 0.00 0.00 0.00 91 930.6
20260507031501 10 209 3.2 3.2 0.00 0.00 0.00 91 930.6
20260507031401 10 193 3.2 3.2 0.00 0.00 0.00 91 930.4
20260507031301 10 205 1.6 3.2 0.00 0.00 0.00 91 930.5
20260507031201 10 205 3.2 3.2 0.00 0.00 0.00 91 930.4
20260507031101 10 202 1.6 3.2 0.00 0.00 0.00 91 930.6
20260507031001 10 202 3.2 3.2 0.00 0.00 0.00 91 930.6
20260507030901 10 207 1.6 1.6 0.00 0.00 0.00 91 930.5
20260507030801 10 213 1.6 3.2 0.00 0.00 0.00 91 930.4
20260507030701 10 208 1.6 3.2 0.00 0.00 0.00 90 930.4
20260507030601 10 210 3.2 3.2 0.00 0.00 0.00 90 930.5
20260507030501 10 210 3.2 3.2 0.00 0.00 0.00 90 930.5
20260507030401 10 210 1.6 3.2 0.00 0.00 0.00 90 930.5
20260507030301 10 210 3.2 3.2 0.00 0.00 0.00 90 930.7
20260507030201 10 212 1.6 3.2 0.00 0.00 0.00 90 930.7
20260507030101 10 199 1.6 3.2 0.00 0.00 0.00 90 930.5
20260507030001 10 201 1.6 3.2 0.00 0.00 0.00 90 930.3
20260507025901 10 196 1.6 3.2 0.00 0.00 0.00 90 930.2
20260507025801 10 222 3.2 3.2 0.00 0.00 0.00 90 930.4
20260507025701 10 212 3.2 4.8 0.00 0.00 0.00 90 930.4
20260507025601 10 207 3.2 4.8 0.00 0.00 0.00 90 930.4
20260507025501 10 212 3.2 4.8 0.00 0.00 0.00 90 930.4
20260507025401 10 214 3.2 4.8 0.00 0.00 0.00 90 930.5
20260507025301 10 223 1.6 3.2 0.00 0.00 0.00 90 930.5
20260507025201 10 203 3.2 3.2 0.00 0.00 0.00 90 930.3
20260507025101 10 220 3.2 3.2 0.00 0.00 0.00 90 930.5
20260507025001 10 194 1.6 3.2 0.00 0.00 0.00 90 930.4
20260507024901 10 204 1.6 3.2 0.00 0.00 0.00 90 930.4
20260507024801 10 205 1.6 3.2 0.00 0.00 0.00 90 930.4
20260507024701 10 205 3.2 3.2 0.00 0.00 0.00 90 930.4
20260507024601 10 213 1.6 3.2 0.00 0.00 0.00 90 930.4
20260507024501 10 199 1.6 3.2 0.00 0.00 0.00 90 930.3
20260507024401 10 195 1.6 3.2 0.00 0.00 0.00 89 930.3
20260507024301 10 193 1.6 3.2 0.00 0.00 0.00 90 930.5
20260507024206 10 193 3.2 3.2 0.00 0.00 0.00 89 930.2
20260507024101 10 199 3.2 3.2 0.00 0.00 0.00 89 930.2
20260507024001 10 212 3.2 3.2 0.00 0.00 0.00 89 930.4
20260507023901 10 211 1.6 3.2 0.00 0.00 0.00 89 930.1
20260507023801 10 189 1.6 3.2 0.00 0.00 0.00 89 930.2
20260507023701 10 182 1.6 3.2 0.00 0.00 0.00 88 930.1
20260507023601 10 201 1.6 3.2 0.00 0.00 0.00 88 930.1
20260507023501 10 193 1.6 3.2 0.00 0.00 0.00 88 930.2
20260507023400 10 217 1.6 3.2 0.00 0.00 0.00 88 930.2
20260507023301 10 204 3.2 3.2 0.00 0.00 0.00 87 930.2
20260507023201 10 200 1.6 3.2 0.00 0.00 0.00 87 930.2
20260507023101 10 207 1.6 3.2 0.00 0.00 0.00 86 930.1
20260507023001 10 212 1.6 3.2 0.00 0.00 0.00 86 930.1
20260507022901 10 207 1.6 3.2 0.00 0.00 0.00 86 930.3
20260507022802 10 212 3.2 3.2 0.00 0.00 0.00 86 930.1
20260507022701 10 210 1.6 3.2 0.00 0.00 0.00 86 930.1
20260507022601 10 213 3.2 3.2 0.00 0.00 0.00 87 930.1
20260507022501 10 223 1.6 3.2 0.00 0.00 0.00 87 930.1
20260507022401 10 199 1.6 3.2 0.00 0.00 0.00 87 930.3
20260507022300 10 210 1.6 1.6 0.00 0.00 0.00 88 930.1
20260507022201 10 200 1.6 1.6 0.00 0.00 0.00 88 930.1
20260507022101 10 210 1.6 1.6 0.00 0.00 0.00 88 930.1
20260507022003 10 208 1.6 1.6 0.00 0.00 0.00 88 930.3
20260507021903 10 194 1.6 1.6 0.00 0.00 0.00 89 930.3
20260507021801 10 205 1.6 1.6 0.00 0.00 0.00 89 930.3
20260507021701 10 195 1.6 1.6 0.00 0.00 0.00 89 930.1
20260507021601 10 196 1.6 1.6 0.00 0.00 0.00 89 930.3
20260507021501 10 191 1.6 1.6 0.00 0.00 0.00 89 930.2
20260507021401 10 212 0.0 1.6 0.00 0.00 0.00 89 930.4
20260507021300 10 212 1.6 1.6 0.00 0.00 0.00 89 930.3
20260507021201 10 213 1.6 1.6 0.00 0.00 0.00 90 930.1
20260507021101 10 216 1.6 1.6 0.00 0.00 0.00 90 930.1
20260507021001 10 230 1.6 1.6 0.00 0.00 0.00 90 930.5
20260507020901 10 213 0.0 1.6 0.00 0.00 0.00 90 930.3
20260507020801 10 214 0.0 1.6 0.00 0.00 0.00 90 930.3
20260507020701 10 216 0.0 1.6 0.00 0.00 0.00 90 930.3
20260507020601 10 216 0.0 1.6 0.00 0.00 0.00 90 930.4
20260507020501 10 216 0.0 1.6 0.00 0.00 0.00 90 930.4
20260507020401 10 216 1.6 1.6 0.00 0.00 0.00 90 930.4
20260507020301 10 222 1.6 1.6 0.00 0.00 0.00 91 930.5
20260507020201 10 217 1.6 3.2 0.00 0.00 0.00 91 930.3
20260507020100 10 211 3.2 3.2 0.00 0.00 0.00 91 930.3
20260507020001 10 205 1.6 1.6 0.00 0.00 0.00 91 930.2
20260507015902 10 220 1.6 1.6 0.00 0.00 0.00 92 930.4
20260507015801 10 221 0.0 1.6 0.00 0.00 0.00 92 930.1
20260507015701 10 214 1.6 1.6 0.00 0.00 0.00 92 930.3
20260507015601 10 205 1.6 1.6 0.00 0.00 0.00 92 930.5
20260507015501 9 208 1.6 3.2 0.00 0.00 0.00 92 930.5
20260507015401 9 212 1.6 3.2 0.00 0.00 0.00 93 930.4
20260507015301 9 212 1.6 1.6 0.00 0.00 0.00 93 930.4
20260507015201 9 214 1.6 3.2 0.00 0.00 0.00 92 930.4
20260507015100 10 213 1.6 1.6 0.00 0.00 0.00 92 930.2
20260507015001 10 212 1.6 1.6 0.00 0.00 0.00 92 930.3
20260507014901 10 211 1.6 3.2 0.00 0.00 0.00 92 930.5
20260507014800 10 212 1.6 3.2 0.00 0.00 0.00 92 930.2
20260507014702 10 208 1.6 3.2 0.00 0.00 0.00 92 930.3
20260507014601 10 213 1.6 3.2 0.00 0.00 0.00 92 930.4
20260507014501 10 203 3.2 3.2 0.00 0.00 0.00 91 930.0
20260507014400 10 202 3.2 3.2 0.00 0.00 0.00 91 930.1
20260507014301 10 202 1.6 3.2 0.00 0.00 0.00 91 930.2
20260507014201 10 199 1.6 3.2 0.00 0.00 0.00 91 930.2
20260507014101 10 195 3.2 3.2 0.00 0.00 0.00 91 930.1
20260507014001 10 206 1.6 3.2 0.00 0.00 0.00 91 930.2
20260507013901 10 215 1.6 3.2 0.00 0.00 0.00 91 930.2
20260507013801 10 203 1.6 3.2 0.00 0.00 0.00 90 930.1
20260507013700 10 199 1.6 3.2 0.00 0.00 0.00 90 930.1
20260507013601 10 194 1.6 3.2 0.00 0.00 0.00 90 930.2
20260507013501 10 209 1.6 3.2 0.00 0.00 0.00 90 930.1
20260507013402 10 216 3.2 3.2 0.00 0.00 0.00 90 930.1
20260507013300 10 209 1.6 1.6 0.00 0.00 0.00 90 929.9
20260507013201 10 196 1.6 1.6 0.00 0.00 0.00 91 930.0
20260507013100 10 200 1.6 3.2 0.00 0.00 0.00 91 930.1
20260507013001 10 211 1.6 3.2 0.00 0.00 0.00 91 930.0
20260507012900 10 216 1.6 3.2 0.00 0.00 0.00 91 930.0
20260507012801 10 211 1.6 1.6 0.00 0.00 0.00 91 930.1
20260507012701 10 188 1.6 1.6 0.00 0.00 0.00 91 930.1
20260507012601 10 187 1.6 1.6 0.00 0.00 0.00 92 930.1
20260507012501 10 194 1.6 1.6 0.00 0.00 0.00 92 930.0
20260507012401 10 209 1.6 1.6 0.00 0.00 0.00 92 930.1
20260507012301 10 215 1.6 1.6 0.00 0.00 0.00 92 929.9
20260507012201 10 209 1.6 1.6 0.00 0.00 0.00 92 930.1
20260507012101 10 209 1.6 1.6 0.00 0.00 0.00 92 930.2
20260507012000 10 215 1.6 1.6 0.00 0.00 0.00 93 930.0
20260507011901 10 207 1.6 3.2 0.00 0.00 0.00 93 930.0
20260507011801 10 209 1.6 3.2 0.00 0.00 0.00 93 930.0
20260507011700 10 209 1.6 3.2 0.00 0.00 0.00 94 930.0
20260507011601 10 212 1.6 1.6 0.00 0.00 0.00 94 930.1
20260507011501 10 212 1.6 1.6 0.00 0.00 0.00 95 930.0
20260507011401 10 211 1.6 1.6 0.00 0.00 0.00 95 930.0
20260507011302 9 211 1.6 1.6 0.00 0.00 0.00 95 930.0
20260507011202 9 211 1.6 1.6 0.00 0.00 0.00 95 930.1
20260507011101 9 160 1.6 1.6 0.00 0.00 0.00 95 929.7
20260507011001 9 160 1.6 1.6 0.00 0.00 0.00 95 929.9
20260507010900 9 160 0.0 1.6 0.00 0.00 0.00 95 929.8
20260507010801 9 160 1.6 1.6 0.00 0.00 0.00 95 929.6
20260507010700 9 159 1.6 1.6 0.00 0.00 0.00 95 929.8
20260507010600 9 160 1.6 1.6 0.00 0.00 0.00 95 929.8
20260507010501 9 159 1.6 1.6 0.00 0.00 0.00 95 929.7
20260507010401 9 159 1.6 1.6 0.00 0.00 0.00 95 929.7
20260507010301 9 159 0.0 1.6 0.00 0.00 0.00 95 929.8
20260507010201 9 160 1.6 1.6 0.00 0.00 0.00 94 929.7
20260507010101 9 160 1.6 1.6 0.00 0.00 0.00 94 929.9
20260507010001 9 165 1.6 1.6 0.00 0.00 0.00 94 929.8
20260507005901 9 163 1.6 1.6 0.00 0.00 0.00 94 929.8
20260507005800 9 158 1.6 1.6 0.00 0.00 0.00 94 929.9
20260507005701 9 153 1.6 1.6 0.00 0.00 0.00 94 929.7
20260507005601 9 153 1.6 1.6 0.00 0.00 0.00 94 929.9
20260507005501 10 158 1.6 1.6 0.00 0.00 0.00 93 929.7
20260507005401 10 158 1.6 1.6 0.00 0.00 0.00 93 929.9
20260507005301 10 169 1.6 1.6 0.00 0.00 0.00 93 929.8
20260507005201 10 176 1.6 1.6 0.00 0.00 0.00 93 929.8
20260507005101 10 175 1.6 3.2 0.00 0.00 0.00 93 929.9
20260507005001 10 188 1.6 3.2 0.00 0.00 0.00 93 929.9
20260507004901 10 190 1.6 3.2 0.00 0.00 0.00 93 929.5
20260507004801 10 195 1.6 3.2 0.00 0.00 0.00 93 929.8
20260507004701 10 212 1.6 3.2 0.00 0.00 0.00 93 929.9
20260507004601 10 216 1.6 1.6 0.00 0.00 0.00 92 930.0
20260507004501 10 216 1.6 3.2 0.00 0.00 0.00 92 929.9
20260507004400 10 219 1.6 3.2 0.00 0.00 0.00 91 929.9
20260507004301 10 214 3.2 3.2 0.00 0.00 0.00 91 930.0
20260507004201 10 194 1.6 1.6 0.00 0.00 0.00 90 930.0
20260507004107 10 197 1.6 1.6 0.00 0.00 0.00 90 930.0
20260507004001 10 176 1.6 1.6 0.00 0.00 0.00 90 929.7
20260507003900 10 172 1.6 1.6 0.00 0.00 0.00 89 929.8
20260507003801 10 167 1.6 1.6 0.00 0.00 0.00 89 929.8
20260507003701 10 160 1.6 1.6 0.00 0.00 0.00 89 929.7
20260507003600 10 125 0.0 1.6 0.00 0.00 0.00 89 929.7
20260507003501 10 124 0.0 1.6 0.00 0.00 0.00 89 929.6
20260507003401 10 10 0.0 0.0 0.00 0.00 0.00 89 929.7
20260507003301 10 10 0.0 0.0 0.00 0.00 0.00 89 929.7
20260507003201 10 9 0.0 0.0 0.00 0.00 0.00 89 929.5
20260507003101 10 9 0.0 0.0 0.00 0.00 0.00 89 929.6
20260507003002 10 9 0.0 0.0 0.00 0.00 0.00 89 929.7
20260507002901 10 9 0.0 1.6 0.00 0.00 0.00 89 929.5
20260507002800 10 16 1.6 1.6 0.00 0.00 0.00 89 929.8
20260507002700 10 1 1.6 1.6 0.00 0.00 0.00 89 929.7
20260507002607 10 30 1.6 1.6 0.00 0.00 0.00 89 929.6
20260507002501 10 36 0.0 0.0 0.00 0.00 0.00 89 929.6
20260507002401 10 36 0.0 0.0 0.00 0.00 0.00 89 929.6
20260507002300 10 37 0.0 0.0 0.00 0.00 0.00 89 929.4
20260507002201 10 330 0.0 0.0 0.00 0.00 0.00 89 929.5
20260507002101 10 330 0.0 0.0 0.00 0.00 0.00 89 929.4
20260507002001 10 330 0.0 0.0 0.00 0.00 0.00 89 929.6
20260507001900 10 330 0.0 0.0 0.00 0.00 0.00 89 929.4
20260507001801 10 330 0.0 0.0 0.00 0.00 0.00 89 929.6
20260507001700 10 330 0.0 0.0 0.00 0.00 0.00 89 929.4
20260507001601 10 329 0.0 0.0 0.00 0.00 0.00 89 929.7
20260507001501 10 329 0.0 0.0 0.00 0.00 0.00 89 929.6
20260507001401 10 329 0.0 1.6 0.00 0.00 0.00 89 929.7
20260507001301 10 329 0.0 1.6 0.00 0.00 0.00 89 929.5
20260507001201 10 322 1.6 1.6 0.00 0.00 0.00 89 929.5
20260507001100 10 328 0.0 1.6 0.00 0.00 0.00 89 929.3
20260507001001 10 336 1.6 1.6 0.00 0.00 0.00 88 929.4
20260507000901 10 342 1.6 1.6 0.00 0.00 0.00 88 929.3
20260507000801 10 358 1.6 1.6 0.00 0.00 0.00 89 929.3
20260507000701 10 338 1.6 1.6 0.00 0.00 0.00 88 929.3
20260507000602 10 24 1.6 1.6 0.00 0.00 0.00 88 929.3
20260507000501 10 20 1.6 1.6 0.00 0.00 0.00 88 929.2
20260507000401 10 351 1.6 1.6 0.00 0.00 0.00 88 929.3
20260507000301 10 351 1.6 1.6 0.00 0.00 0.00 88 929.3
20260507000201 10 346 1.6 1.6 0.00 0.00 0.00 88 929.2
20260507000002 10 345 1.6 1.6 0.00 0.00 0.00 89 929.3
20260506235901 10 342 1.6 1.6 0.00 0.00 0.00 89 929.4
20260506235801 10 334 1.6 1.6 0.00 0.00 0.00 89 929.5
20260506235701 10 316 1.6 1.6 0.00 0.00 0.00 89 929.6
20260506235601 10 320 1.6 1.6 0.00 0.00 0.00 89 929.5
20260506235501 10 312 0.0 1.6 0.00 0.00 0.00 89 929.5
20260506235401 10 304 0.0 1.6 0.00 0.00 0.00 89 929.4
20260506235301 10 303 0.0 1.6 0.00 0.00 0.00 89 929.5
20260506235201 10 296 0.0 1.6 0.00 0.00 0.00 89 929.5
20260506235101 10 296 0.0 1.6 0.00 0.00 0.00 88 929.4
20260506235001 10 293 1.6 1.6 0.00 0.00 0.00 88 929.6
20260506234901 10 273 1.6 1.6 0.00 0.00 0.00 89 929.7
20260506234801 10 300 1.6 3.2 0.00 0.00 0.00 89 929.7
20260506234701 10 300 1.6 1.6 0.00 0.00 0.00 89 929.4
20260506234600 10 302 1.6 3.2 0.00 0.00 0.00 89 929.4
20260506234501 10 326 3.2 3.2 0.00 0.00 0.00 89 929.4
20260506234400 10 309 1.6 1.6 0.00 0.00 0.00 89 929.4
20260506234301 10 298 1.6 1.6 0.00 0.00 0.00 89 929.3
20260506234201 10 280 1.6 1.6 0.00 0.00 0.00 89 929.5
20260506234101 10 289 1.6 1.6 0.00 0.00 0.00 89 929.4
20260506234001 10 302 1.6 1.6 0.00 0.00 0.00 88 929.2
20260506233901 10 330 1.6 3.2 0.00 0.00 0.00 88 929.3
20260506233801 10 321 1.6 3.2 0.00 0.00 0.00 88 929.1
20260506233701 10 330 1.6 3.2 0.00 0.00 0.00 88 929.3
20260506233602 10 326 1.6 3.2 0.00 0.00 0.00 88 929.2
20260506233501 11 329 1.6 4.8 0.00 0.00 0.00 88 929.2
20260506233401 11 328 3.2 3.2 0.00 0.00 0.00 88 929.1
20260506233301 11 322 3.2 3.2 0.00 0.00 0.00 88 929.3
20260506233201 11 316 3.2 3.2 0.00 0.00 0.00 88 929.2
20260506233102 11 322 3.2 4.8 0.00 0.00 0.00 88 929.2
20260506233001 11 333 3.2 4.8 0.00 0.00 0.00 88 928.9
20260506232900 11 328 3.2 4.8 0.00 0.00 0.00 87 928.9
20260506232801 11 327 3.2 4.8 0.00 0.00 0.00 87 929.1
20260506232701 11 331 4.8 4.8 0.00 0.00 0.00 88 928.9
20260506232600 11 347 4.8 4.8 0.00 0.00 0.00 88 928.9
20260506232500 11 334 3.2 4.8 0.00 0.00 0.00 88 928.9
20260506232401 11 343 4.8 4.8 0.00 0.00 0.00 88 929.0
20260506232301 11 348 3.2 3.2 0.00 0.00 0.00 87 928.9
20260506232201 11 352 3.2 4.8 0.00 0.00 0.00 87 929.0
20260506232100 11 344 3.2 4.8 0.00 0.00 0.00 87 928.8
20260506232001 11 342 4.8 4.8 0.00 0.00 0.00 87 928.7
20260506231901 11 349 4.8 6.4 0.00 0.00 0.00 87 928.7
20260506231801 11 351 4.8 6.4 0.00 0.00 0.00 87 928.5
20260506231701 11 63 4.8 4.8 0.00 0.00 0.00 87 928.7
20260506231601 11 352 3.2 4.8 0.00 0.00 0.00 87 928.3
20260506231501 11 20 3.2 4.8 0.00 0.00 0.00 87 928.2
20260506231401 11 337 3.2 4.8 0.00 0.00 0.00 87 928.3
20260506231301 11 0 3.2 4.8 0.00 0.00 0.00 87 928.2
20260506231201 11 45 4.8 4.8 0.00 0.00 0.00 87 928.1
20260506231100 11 18 3.2 6.4 0.00 0.00 0.00 87 928.3
20260506231001 11 14 3.2 6.4 0.00 0.00 0.00 87 928.2
20260506230901 11 31 4.8 6.4 0.00 0.00 0.00 87 928.2
20260506230801 11 3 4.8 6.4 0.00 0.00 0.00 87 928.4
20260506230701 11 17 4.8 6.4 0.00 0.00 0.00 87 928.2
20260506230601 11 43 4.8 6.4 0.00 0.00 0.00 87 928.4
20260506230501 11 355 4.8 4.8 0.00 0.00 0.00 87 928.2
20260506230400 11 28 4.8 6.4 0.00 0.00 0.00 88 928.3
20260506230302 11 28 4.8 6.4 0.00 0.00 0.00 88 928.3
20260506230201 11 353 4.8 6.4 0.00 0.00 0.00 88 928.2
20260506230101 11 9 4.8 4.8 0.00 0.00 0.00 88 928.1
20260506230001 11 22 3.2 6.4 0.00 0.00 0.00 88 928.4
20260506225901 11 14 3.2 6.4 0.00 0.00 0.00 88 928.3
20260506225800 11 10 3.2 6.4 0.00 0.00 0.00 88 928.3
20260506225701 11 351 4.8 6.4 0.00 0.00 0.00 88 928.4
20260506225601 11 353 4.8 6.4 0.00 0.00 0.00 89 928.6
20260506225501 11 350 6.4 6.4 0.00 0.00 0.00 89 928.3
20260506225401 11 0 3.2 4.8 0.00 0.00 0.00 90 928.4
20260506225301 11 347 3.2 4.8 0.00 0.00 0.00 90 928.5
20260506225202 11 347 3.2 4.8 0.00 0.00 0.00 90 928.6
20260506225100 11 344 3.2 4.8 0.00 0.00 0.00 90 928.3
20260506225001 11 339 3.2 6.4 0.00 0.00 0.00 90 928.5
20260506224901 11 328 4.8 6.4 0.00 0.00 0.00 90 928.3
20260506224801 11 334 4.8 6.4 0.00 0.00 0.00 91 928.3
20260506224701 11 335 6.4 6.4 0.00 0.00 0.00 91 928.5
20260506224601 11 337 4.8 6.4 0.00 0.00 0.00 91 928.3
20260506224501 11 328 4.8 6.4 0.00 0.00 0.00 91 928.7
20260506224401 11 334 6.4 6.4 0.00 0.00 0.00 91 928.4
20260506224301 11 338 4.8 6.4 0.00 0.00 0.00 91 928.4
20260506224201 11 330 6.4 8.0 0.00 0.00 0.00 91 928.4
20260506224101 11 324 6.4 8.0 0.00 0.00 0.00 92 928.5
20260506224001 11 338 4.8 6.4 0.00 0.00 0.00 92 928.6
20260506223901 11 322 6.4 6.4 0.00 0.00 0.00 92 928.6
20260506223801 11 336 4.8 6.4 0.00 0.00 0.00 92 928.4
20260506223700 11 332 4.8 6.4 0.00 0.00 0.00 92 928.4
20260506223601 11 327 4.8 6.4 0.00 0.00 0.00 92 928.5
20260506223501 11 335 4.8 6.4 0.00 0.00 0.00 92 928.5
20260506223402 11 329 4.8 8.0 0.00 0.00 0.00 92 928.5
20260506223300 11 331 6.4 8.0 0.00 0.00 0.00 92 928.4
20260506223201 11 330 4.8 8.0 0.00 0.00 0.00 92 928.5
20260506223100 11 333 6.4 8.0 0.00 0.00 0.00 92 928.4
20260506223001 11 344 4.8 6.4 0.00 0.00 0.00 92 928.6
20260506222901 11 328 6.4 8.0 0.00 0.00 0.00 92 928.7
20260506222801 11 335 4.8 8.0 0.00 0.00 0.00 92 928.6
20260506222700 11 322 4.8 8.0 0.00 0.00 0.00 92 928.6
20260506222600 11 308 6.4 9.7 0.00 0.00 0.00 92 928.4
20260506222500 11 307 6.4 9.7 0.00 0.00 0.00 92 928.6
20260506222400 11 324 6.4 9.7 0.00 0.00 0.00 92 928.4
20260506222301 11 333 4.8 8.0 0.00 0.00 0.00 92 928.7
20260506222202 11 322 6.4 8.0 0.00 0.00 0.00 93 928.5
20260506222101 10 326 4.8 8.0 0.00 0.00 0.00 93 928.5
20260506222001 10 323 8.0 8.0 0.00 0.00 0.00 93 928.7
20260506221902 10 327 6.4 9.7 0.00 0.00 0.00 93 928.7
20260506221801 10 322 6.4 9.7 0.00 0.00 0.00 94 928.7
20260506221701 10 321 6.4 9.7 0.00 0.00 0.00 94 928.8
20260506221601 10 328 6.4 8.0 0.00 0.00 0.00 94 928.6
20260506221501 10 326 6.4 6.4 0.00 0.00 0.00 94 928.7
20260506221401 10 319 6.4 9.7 0.00 0.00 0.00 94 928.9
20260506221301 10 320 6.4 6.4 0.00 0.00 0.00 94 928.5
20260506221202 10 319 3.2 6.4 0.00 0.00 0.00 94 928.7
20260506221101 10 325 3.2 4.8 0.00 0.00 0.00 94 928.9
20260506221001 10 325 4.8 6.4 0.00 0.00 0.00 94 928.7
20260506220901 10 315 4.8 6.4 0.00 0.00 0.00 94 928.7
20260506220802 10 338 3.2 6.4 0.00 0.00 0.00 94 928.8
20260506220701 10 301 3.2 6.4 0.00 0.00 0.00 94 928.6
20260506220601 10 310 3.2 6.4 0.00 0.00 0.00 94 928.8
20260506220501 10 302 3.2 8.0 0.00 0.00 0.00 94 928.7
20260506220401 10 306 3.2 8.0 0.00 0.00 0.00 94 928.9
20260506220301 10 316 4.8 9.7 0.00 0.00 0.00 94 928.8
20260506220201 10 319 3.2 9.7 0.00 0.00 0.00 94 928.8
20260506220100 10 311 3.2 4.8 0.00 0.00 0.05 94 928.8
20260506220001 10 311 3.2 4.8 0.00 0.00 0.05 94 928.8
20260506215901 10 300 3.2 4.8 0.00 0.00 0.05 94 928.8
20260506215801 10 305 3.2 4.8 0.00 0.00 0.05 94 928.8
20260506215702 10 306 1.6 4.8 0.00 0.00 0.05 94 928.7
20260506215600 10 301 3.2 4.8 0.00 0.00 0.05 94 928.8
20260506215501 10 308 3.2 6.4 0.00 0.00 0.05 94 928.8
20260506215401 10 314 4.8 6.4 0.00 0.00 0.05 94 928.9
20260506215301 10 311 3.2 3.2 0.00 0.00 0.05 94 928.9
20260506215201 10 310 1.6 3.2 0.00 0.00 0.05 94 928.8
20260506215101 10 306 3.2 4.8 0.00 0.00 0.05 94 928.8
20260506215000 10 278 3.2 9.7 0.00 0.00 0.05 94 928.9
20260506214901 10 304 6.4 9.7 0.00 0.00 0.05 93 928.9
20260506214801 10 305 3.2 6.4 0.00 0.00 0.05 93 928.9
20260506214702 10 310 3.2 6.4 0.00 0.00 0.05 93 928.5
20260506214601 10 298 3.2 4.8 0.00 0.00 0.05 93 928.7
20260506214501 10 297 3.2 4.8 0.00 0.00 0.05 92 928.7
20260506214401 10 306 3.2 4.8 0.00 0.00 0.05 92 928.9
20260506214301 10 295 3.2 4.8 0.00 0.00 0.05 92 928.8
20260506214201 10 280 3.2 4.8 0.00 0.00 0.05 92 928.8
20260506214101 10 308 3.2 4.8 0.00 0.00 0.05 92 928.9
20260506214001 10 283 1.6 3.2 0.00 0.00 0.05 92 928.8
20260506213901 10 300 3.2 3.2 0.00 0.00 0.05 91 928.8
20260506213801 10 296 3.2 4.8 0.00 0.00 0.05 91 928.7
20260506213701 10 291 3.2 4.8 0.00 0.00 0.05 91 928.6
20260506213601 10 285 3.2 4.8 0.00 0.00 0.05 91 928.6
20260506213502 10 288 3.2 4.8 0.00 0.00 0.05 92 928.7
20260506213401 10 276 3.2 4.8 0.00 0.00 0.05 91 928.7
20260506213301 10 300 3.2 4.8 0.00 0.00 0.05 91 928.6
20260506213201 10 292 1.6 3.2 0.00 0.00 0.05 91 928.6
20260506213101 10 278 1.6 3.2 0.00 0.00 0.05 91 928.5
20260506213001 10 276 1.6 1.6 0.00 0.00 0.05 91 928.5
20260506212901 10 271 1.6 1.6 0.00 0.00 0.05 90 928.4
20260506212801 10 293 1.6 1.6 0.00 0.00 0.05 90 928.4
20260506212701 10 309 1.6 1.6 0.00 0.00 0.05 90 928.0
20260506212602 10 317 1.6 3.2 0.00 0.00 0.05 90 928.0
20260506212501 10 320 1.6 3.2 0.00 0.00 0.05 90 928.1
20260506212401 10 325 1.6 3.2 0.00 0.00 0.05 90 927.9
20260506212301 10 325 3.2 3.2 0.00 0.00 0.05 91 927.7
20260506212201 10 328 3.2 3.2 0.00 0.00 0.05 90 928.0
20260506212101 10 328 3.2 3.2 0.00 0.00 0.05 90 927.8
20260506212001 10 326 3.2 3.2 0.00 0.00 0.05 90 927.8
20260506211901 10 323 3.2 3.2 0.00 0.00 0.05 90 927.6
20260506211801 11 340 3.2 3.2 0.00 0.00 0.05 89 927.5
20260506211701 11 333 3.2 3.2 0.00 0.00 0.05 89 927.5
20260506211601 11 346 3.2 3.2 0.00 0.00 0.05 89 927.6
20260506211201 11 18 3.2 3.2 0.00 0.00 0.05 89 927.4
20260506211101 11 40 1.6 3.2 0.00 0.00 0.05 89 927.2
20260506211001 11 37 1.6 3.2 0.00 0.00 0.05 89 927.1
20260506210901 11 45 3.2 3.2 0.00 0.00 0.05 89 927.3
20260506210801 11 49 3.2 4.8 0.00 0.00 0.05 89 927.1
20260506210700 11 48 3.2 4.8 0.00 0.00 0.05 89 927.3
20260506210601 11 68 1.6 3.2 0.00 0.00 0.05 89 927.4
20260506210501 11 57 3.2 3.2 0.00 0.00 0.05 88 927.1
20260506210402 11 50 3.2 3.2 0.00 0.00 0.05 88 927.3
20260506210301 11 65 1.6 3.2 0.00 0.00 0.05 88 927.2
20260506210201 11 58 1.6 3.2 0.00 0.00 0.05 88 927.1
20260506210001 11 82 1.6 3.2 0.00 0.00 0.05 88 927.2
20260506205901 11 54 1.6 3.2 0.00 0.00 0.05 88 927.2
20260506205801 11 72 1.6 3.2 0.00 0.00 0.05 88 927.2
20260506205700 11 66 1.6 3.2 0.00 0.00 0.05 88 927.1
20260506205601 11 56 1.6 3.2 0.00 0.00 0.05 88 927.3
20260506205501 11 71 1.6 3.2 0.00 0.00 0.05 88 927.1
20260506205400 11 49 1.6 3.2 0.00 0.00 0.05 88 927.2
20260506205305 11 82 1.6 3.2 0.00 0.00 0.05 88 927.2
20260506205201 11 69 1.6 3.2 0.00 0.00 0.05 88 927.2
20260506205100 11 91 1.6 3.2 0.00 0.00 0.05 88 927.0
20260506205001 11 65 3.2 4.8 0.00 0.00 0.05 88 927.2
20260506204901 11 75 3.2 4.8 0.00 0.00 0.05 88 927.2
20260506204801 11 60 3.2 4.8 0.00 0.00 0.05 88 927.1
20260506204701 11 56 3.2 4.8 0.00 0.00 0.05 88 927.3
20260506204602 11 60 1.6 3.2 0.00 0.00 0.05 89 927.3
20260506204501 11 58 3.2 3.2 0.00 0.00 0.05 88 927.1
20260506204401 11 43 3.2 3.2 0.00 0.00 0.05 88 927.0
20260506204301 11 75 1.6 4.8 0.00 0.00 0.05 88 927.4
20260506204200 11 37 3.2 3.2 0.00 0.00 0.05 88 927.3
20260506204101 11 56 3.2 4.8 0.00 0.00 0.05 88 927.4
20260506204001 11 59 3.2 4.8 0.00 0.00 0.05 88 927.4
20260506203901 11 53 3.2 4.8 0.00 0.00 0.05 88 927.2
20260506203801 11 55 3.2 4.8 0.00 0.00 0.05 87 927.0
20260506203701 11 48 3.2 4.8 0.00 0.00 0.05 87 927.1
20260506203600 11 42 3.2 4.8 0.00 0.00 0.05 87 927.3
20260506203501 11 42 3.2 6.4 0.00 0.00 0.05 87 927.2
20260506203401 11 41 4.8 6.4 0.00 0.00 0.05 88 927.0
20260506203301 11 55 4.8 4.8 0.00 0.00 0.05 88 927.1
20260506203201 11 46 4.8 4.8 0.00 0.00 0.05 88 927.1
20260506203101 11 44 3.2 6.4 0.00 0.00 0.05 88 927.1
20260506203001 11 56 3.2 4.8 0.00 0.00 0.05 88 927.2
20260506202901 11 16 3.2 4.8 0.00 0.00 0.05 88 927.0
20260506202801 11 69 3.2 4.8 0.00 0.00 0.05 88 927.2
20260506202700 11 59 3.2 4.8 0.00 0.00 0.05 88 927.5
20260506202601 11 66 3.2 4.8 0.00 0.00 0.05 88 927.3
20260506202502 11 66 3.2 4.8 0.00 0.00 0.05 88 927.4
20260506202401 11 102 3.2 4.8 0.00 0.00 0.05 88 927.2
20260506202301 11 44 4.8 4.8 0.00 0.00 0.05 87 927.1
20260506202201 11 60 3.2 4.8 0.00 0.00 0.05 87 927.4
20260506202101 11 62 3.2 4.8 0.00 0.00 0.05 87 927.1
20260506202000 11 56 1.6 4.8 0.00 0.00 0.05 87 927.4
20260506201901 11 81 1.6 3.2 0.00 0.00 0.05 87 927.4
20260506201801 11 70 1.6 4.8 0.00 0.00 0.05 86 927.3
20260506201701 11 47 3.2 4.8 0.00 0.00 0.05 86 927.3
20260506201601 11 55 3.2 3.2 0.00 0.00 0.05 86 927.3
20260506201501 11 35 3.2 4.8 0.00 0.00 0.05 86 927.5
20260506201401 11 58 3.2 4.8 0.00 0.00 0.05 86 927.5
20260506201301 11 58 1.6 4.8 0.00 0.00 0.05 86 927.3
20260506201201 11 57 3.2 4.8 0.00 0.00 0.05 86 927.3
20260506201102 11 51 3.2 4.8 0.00 0.00 0.05 86 927.3
20260506201001 11 46 4.8 4.8 0.00 0.00 0.05 86 927.3
20260506200901 11 5 3.2 4.8 0.00 0.00 0.05 86 927.2
20260506200801 11 37 4.8 4.8 0.00 0.00 0.05 86 927.4
20260506200701 11 39 3.2 6.4 0.00 0.00 0.05 86 927.1
20260506200601 11 65 4.8 6.4 0.00 0.00 0.05 86 927.5
20260506200501 11 44 4.8 6.4 0.00 0.00 0.05 87 927.4
20260506200401 11 21 3.2 6.4 0.00 0.00 0.05 87 927.2
20260506200301 11 35 3.2 6.4 0.00 0.00 0.05 87 927.3
20260506200201 11 352 4.8 6.4 0.00 0.00 0.05 87 927.4
20260506200101 11 37 4.8 6.4 0.00 0.00 0.05 87 927.3
20260506200001 11 44 4.8 6.4 0.00 0.00 0.05 87 927.3
20260506195901 11 44 4.8 6.4 0.00 0.00 0.05 87 927.3
20260506195801 11 11 4.8 4.8 0.00 0.00 0.05 87 927.3
20260506195701 11 44 4.8 4.8 0.00 0.00 0.05 86 927.5
20260506195601 11 59 4.8 6.4 0.00 0.00 0.05 86 927.4
20260506195501 11 38 4.8 6.4 0.00 0.00 0.05 86 927.3
20260506195401 11 44 3.2 6.4 0.00 0.00 0.05 86 927.4
20260506195300 11 43 3.2 6.4 0.00 0.00 0.05 86 927.6
20260506195200 11 50 4.8 6.4 0.00 0.00 0.05 86 927.4
20260506195101 11 35 4.8 8.0 0.00 0.00 0.05 86 927.5
20260506195001 11 50 6.4 8.0 0.00 0.00 0.05 86 927.3
20260506194901 11 14 4.8 6.4 0.00 0.00 0.05 85 927.5
20260506194800 11 56 6.4 6.4 0.00 0.00 0.05 85 927.5
20260506194701 11 42 3.2 6.4 0.00 0.00 0.05 85 927.7
20260506194600 11 46 4.8 6.4 0.00 0.00 0.05 85 927.5
20260506194501 11 18 4.8 6.4 0.00 0.00 0.05 85 927.4
20260506194401 11 35 4.8 8.0 0.00 0.00 0.05 85 927.6
20260506194300 11 30 6.4 8.0 0.00 0.00 0.05 85 927.5
20260506194201 11 48 4.8 6.4 0.00 0.00 0.05 85 927.6
20260506194101 11 2 4.8 6.4 0.00 0.00 0.05 85 927.5
20260506194001 11 55 3.2 6.4 0.00 0.00 0.05 85 927.3
20260506193901 11 36 4.8 6.4 0.00 0.00 0.05 85 927.2
20260506193801 11 41 4.8 8.0 0.00 0.00 0.05 85 927.5
20260506193701 11 11 6.4 8.0 0.00 0.00 0.05 84 927.4
20260506193601 11 47 6.4 9.7 0.00 0.00 0.05 84 927.5
20260506193501 11 41 4.8 9.7 0.00 0.00 0.05 84 927.6
20260506193400 11 25 6.4 8.0 0.00 0.00 0.05 85 927.4
20260506193300 11 69 3.2 6.4 0.00 0.00 0.05 86 927.4
20260506193201 11 30 4.8 8.0 0.00 0.00 0.05 86 927.5
20260506193101 11 50 4.8 8.0 0.00 0.00 0.05 86 927.1
20260506193001 11 34 4.8 6.4 0.00 0.00 0.05 86 927.4
20260506192901 11 35 4.8 6.4 0.00 0.00 0.05 87 927.6
20260506192801 11 16 6.4 6.4 0.00 0.00 0.05 87 927.4
20260506192701 11 46 4.8 6.4 0.00 0.00 0.05 88 927.5
20260506192601 11 34 4.8 4.8 0.00 0.00 0.05 88 927.6
20260506192501 11 35 4.8 8.0 0.00 0.00 0.05 88 927.6
20260506192401 11 34 6.4 8.0 0.00 0.00 0.05 88 927.3
20260506192300 11 27 6.4 6.4 0.00 0.00 0.05 88 927.6
20260506192201 11 68 4.8 6.4 0.00 0.00 0.05 88 927.5
20260506192101 11 26 6.4 6.4 0.00 0.00 0.05 88 927.5
20260506192001 12 23 6.4 6.4 0.00 0.00 0.05 88 927.3
20260506191901 12 30 6.4 9.7 0.00 0.00 0.05 88 927.4
20260506191801 12 32 8.0 9.7 0.00 0.00 0.05 89 927.4
20260506191701 12 37 6.4 8.0 0.00 0.00 0.05 89 927.4
20260506191601 12 54 4.8 8.0 0.00 0.00 0.05 89 927.3
20260506191501 12 33 6.4 8.0 0.00 0.00 0.05 89 927.2
20260506191401 12 24 4.8 8.0 0.00 0.00 0.05 89 927.2
20260506191301 12 2 3.2 6.4 0.00 0.00 0.05 89 927.3
20260506191102 11 33 4.8 8.0 0.00 0.00 0.05 90 927.3
20260506190902 11 24 3.2 6.4 0.00 0.00 0.05 91 927.4
20260506190701 11 31 4.8 6.4 0.00 0.00 0.05 92 927.4
20260506190601 11 48 4.8 6.4 0.00 0.00 0.05 92 927.5
20260506190501 11 41 4.8 8.0 0.00 0.00 0.05 92 927.4
20260506190401 11 21 4.8 8.0 0.00 0.00 0.05 93 927.4
20260506190301 11 47 4.8 6.4 0.00 0.00 0.05 92 927.5
20260506190201 11 27 4.8 6.4 0.00 0.00 0.05 92 927.5
20260506190101 11 27 4.8 6.4 0.00 0.00 0.05 92 927.2
20260506190001 11 39 6.4 8.0 0.00 0.00 0.05 93 927.6